Time,TemperatureF,DewpointF,PressureIn,WindDirection,WindDirectionDegrees,WindSpeedMPH,WindSpeedGustMPH,Humidity,HourlyPrecipIn,Conditions,Clouds,dailyrainin,SoftwareType,DateUTC
2013-02-13 00:00:00,31.1,25.0,29.95,West,260,2.0,2.0,78,0.00,,,0.00,Wunderground v.1.15,2013-02-13 05:00:00,
2013-02-13 00:01:00,31.1,25.3,29.94,SW,228,2.0,2.0,79,0.00,,,0.00,Wunderground v.1.15,2013-02-13 05:01:00,
2013-02-13 00:02:00,31.0,25.2,29.95,WSW,249,2.0,2.0,79,0.00,,,0.00,Wunderground v.1.15,2013-02-13 05:02:00,
2013-02-13 00:03:00,31.0,25.2,29.95,West,262,2.0,2.0,79,0.00,,,0.00,Wunderground v.1.15,2013-02-13 05:03:00,
2013-02-13 00:06:00,31.0,25.2,29.95,West,264,2.0,3.0,79,0.00,,,0.00,Wunderground v.1.15,2013-02-13 05:06:00,
2013-02-13 00:07:00,31.0,25.2,29.95,SSW,204,2.0,3.0,79,0.00,,,0.00,Wunderground v.1.15,2013-02-13 05:07:00,
2013-02-13 00:08:00,31.0,25.6,29.95,WSW,252,2.0,3.0,80,0.00,,,0.00,Wunderground v.1.15,2013-02-13 05:08:00,
2013-02-13 00:12:00,30.9,25.5,29.95,WSW,240,2.0,2.0,80,0.00,,,0.00,Wunderground v.1.15,2013-02-13 05:12:00,
2013-02-13 00:13:00,30.9,25.5,29.95,WSW,246,2.0,2.0,80,0.00,,,0.00,Wunderground v.1.15,2013-02-13 05:13:00,
2013-02-13 00:14:00,30.9,25.5,29.95,WSW,242,2.0,2.0,80,0.00,,,0.00,Wunderground v.1.15,2013-02-13 05:14:00,
2013-02-13 00:15:00,30.9,25.5,29.95,SW,232,2.0,2.0,80,0.00,,,0.00,Wunderground v.1.15,2013-02-13 05:15:00,
2013-02-13 00:17:00,30.8,25.7,29.95,WSW,249,2.0,2.0,81,0.00,,,0.00,Wunderground v.1.15,2013-02-13 05:17:00,
2013-02-13 00:20:00,30.8,25.7,29.95,SW,226,1.0,2.0,81,0.00,,,0.00,Wunderground v.1.15,2013-02-13 05:20:00,
2013-02-13 00:23:00,30.8,25.7,29.95,WSW,243,2.0,2.0,81,0.00,,,0.00,Wunderground v.1.15,2013-02-13 05:23:00,
2013-02-13 00:24:00,30.8,25.7,29.95,WSW,246,1.0,2.0,81,0.00,,,0.00,Wunderground v.1.15,2013-02-13 05:24:00,
2013-02-13 00:25:00,30.8,25.7,29.95,SW,232,1.0,2.0,81,0.00,,,0.00,Wunderground v.1.15,2013-02-13 05:25:00,
2013-02-13 00:27:00,30.8,25.7,29.95,WSW,250,2.0,2.0,81,0.00,,,0.00,Wunderground v.1.15,2013-02-13 05:27:00,
2013-02-13 00:28:00,30.8,25.7,29.95,WSW,241,2.0,2.0,81,0.00,,,0.00,Wunderground v.1.15,2013-02-13 05:28:00,
2013-02-13 00:29:00,30.8,25.7,29.94,WSW,252,2.0,2.0,81,0.00,,,0.00,Wunderground v.1.15,2013-02-13 05:29:00,
2013-02-13 00:30:00,30.8,25.7,29.95,West,271,2.0,2.0,81,0.00,,,0.00,Wunderground v.1.15,2013-02-13 05:30:00,
2013-02-13 00:33:00,30.8,25.4,29.95,West,264,2.0,2.0,80,0.00,,,0.00,Wunderground v.1.15,2013-02-13 05:33:00,
2013-02-13 00:35:00,30.8,25.4,29.94,WSW,244,2.0,2.0,80,0.00,,,0.00,Wunderground v.1.15,2013-02-13 05:35:00,
2013-02-13 00:36:00,30.8,25.4,29.95,WSW,255,2.0,2.0,80,0.00,,,0.00,Wunderground v.1.15,2013-02-13 05:36:00,
2013-02-13 00:38:00,30.8,25.4,29.95,WSW,249,1.0,2.0,80,0.00,,,0.00,Wunderground v.1.15,2013-02-13 05:38:00,
2013-02-13 00:40:00,30.8,25.1,29.95,WSW,247,1.0,1.0,79,0.00,,,0.00,Wunderground v.1.15,2013-02-13 05:40:00,
2013-02-13 00:41:00,30.8,25.4,29.95,WSW,249,1.0,2.0,80,0.00,,,0.00,Wunderground v.1.15,2013-02-13 05:41:00,
2013-02-13 00:42:00,30.8,25.4,29.95,WSW,251,1.0,2.0,80,0.00,,,0.00,Wunderground v.1.15,2013-02-13 05:42:00,
2013-02-13 00:43:00,30.8,25.1,29.95,SW,235,1.0,2.0,79,0.00,,,0.00,Wunderground v.1.15,2013-02-13 05:43:00,
2013-02-13 00:45:00,30.8,24.7,29.95,West,269,1.0,2.0,78,0.00,,,0.00,Wunderground v.1.15,2013-02-13 05:45:00,
2013-02-13 00:50:00,30.8,24.7,29.95,WSW,255,1.0,1.0,78,0.00,,,0.00,Wunderground v.1.15,2013-02-13 05:50:00,
2013-02-13 00:51:00,30.8,24.7,29.95,WSW,255,1.0,1.0,78,0.00,,,0.00,Wunderground v.1.15,2013-02-13 05:51:00,
2013-02-13 00:52:00,30.8,24.7,29.95,WSW,255,1.0,1.0,78,0.00,,,0.00,Wunderground v.1.15,2013-02-13 05:52:00,
2013-02-13 00:57:00,30.8,24.7,29.95,WSW,256,0.0,2.0,78,0.00,,,0.00,Wunderground v.1.15,2013-02-13 05:57:00,
2013-02-13 01:00:00,30.8,24.7,29.95,SW,214,1.0,1.0,78,0.00,,,0.00,Wunderground v.1.15,2013-02-13 06:00:00,
2013-02-13 01:01:00,30.8,24.7,29.95,SW,215,1.0,1.0,78,0.00,,,0.00,Wunderground v.1.15,2013-02-13 06:01:00,
2013-02-13 01:02:00,30.8,24.7,29.95,SW,215,1.0,1.0,78,0.00,,,0.00,Wunderground v.1.15,2013-02-13 06:02:00,
2013-02-13 01:03:00,30.8,25.1,29.95,WSW,238,1.0,1.0,79,0.00,,,0.00,Wunderground v.1.15,2013-02-13 06:03:00,
2013-02-13 01:05:00,30.8,25.1,29.95,SW,228,0.0,1.0,79,0.00,,,0.00,Wunderground v.1.15,2013-02-13 06:05:00,
2013-02-13 01:06:00,30.8,25.1,29.95,SW,227,0.0,1.0,79,0.00,,,0.00,Wunderground v.1.15,2013-02-13 06:06:00,
2013-02-13 01:07:00,30.7,25.0,29.94,SW,227,0.0,1.0,79,0.00,,,0.00,Wunderground v.1.15,2013-02-13 06:07:00,
2013-02-13 01:09:00,30.7,25.0,29.94,SW,222,0.0,1.0,79,0.00,,,0.00,Wunderground v.1.15,2013-02-13 06:09:00,
2013-02-13 01:12:00,30.7,25.0,29.94,SW,219,0.0,1.0,79,0.00,,,0.00,Wunderground v.1.15,2013-02-13 06:12:00,
2013-02-13 01:13:00,30.7,25.0,29.94,SW,232,0.0,2.0,79,0.00,,,0.00,Wunderground v.1.15,2013-02-13 06:13:00,
2013-02-13 01:15:00,30.7,25.3,29.94,SW,232,0.0,2.0,80,0.00,,,0.00,Wunderground v.1.15,2013-02-13 06:15:00,
2013-02-13 01:18:00,30.6,25.2,29.94,SW,222,0.0,2.0,80,0.00,,,0.00,Wunderground v.1.15,2013-02-13 06:18:00,
2013-02-13 01:19:00,30.6,25.2,29.94,SW,225,0.0,2.0,80,0.00,,,0.00,Wunderground v.1.15,2013-02-13 06:19:00,
2013-02-13 01:20:00,30.6,25.2,29.94,WSW,252,0.0,1.0,80,0.00,,,0.00,Wunderground v.1.15,2013-02-13 06:20:00,
2013-02-13 01:24:00,30.6,25.2,29.94,SW,232,0.0,1.0,80,0.00,,,0.00,Wunderground v.1.15,2013-02-13 06:24:00,
2013-02-13 01:26:00,30.6,25.2,29.94,SW,233,0.0,2.0,80,0.00,,,0.00,Wunderground v.1.15,2013-02-13 06:26:00,
2013-02-13 01:27:00,30.6,25.2,29.94,SSW,205,0.0,2.0,80,0.00,,,0.00,Wunderground v.1.15,2013-02-13 06:27:00,
2013-02-13 01:29:00,30.6,25.2,29.94,West,271,0.0,2.0,80,0.00,,,0.00,Wunderground v.1.15,2013-02-13 06:29:00,
2013-02-13 01:32:00,30.6,25.2,29.94,SSW,207,0.0,0.0,80,0.00,,,0.00,Wunderground v.1.15,2013-02-13 06:32:00,
2013-02-13 01:33:00,30.6,25.2,29.94,SSW,207,0.0,0.0,80,0.00,,,0.00,Wunderground v.1.15,2013-02-13 06:33:00,
2013-02-13 01:34:00,30.5,25.1,29.94,SSW,196,0.0,0.0,80,0.00,,,0.00,Wunderground v.1.15,2013-02-13 06:34:00,
2013-02-13 01:38:00,30.5,25.1,29.94,SW,232,0.0,2.0,80,0.00,,,0.00,Wunderground v.1.15,2013-02-13 06:38:00,
2013-02-13 01:39:00,30.5,25.1,29.94,SW,219,0.0,2.0,80,0.00,,,0.00,Wunderground v.1.15,2013-02-13 06:39:00,
2013-02-13 01:40:00,30.5,25.1,29.94,WSW,248,0.0,0.0,80,0.00,,,0.00,Wunderground v.1.15,2013-02-13 06:40:00,
2013-02-13 01:44:00,30.5,25.1,29.94,SW,225,0.0,0.0,80,0.00,,,0.00,Wunderground v.1.15,2013-02-13 06:44:00,
2013-02-13 01:45:00,30.5,25.1,29.94,SW,225,0.0,0.0,80,0.00,,,0.00,Wunderground v.1.15,2013-02-13 06:45:00,
2013-02-13 01:46:00,30.5,25.1,29.94,SSW,212,0.0,0.0,80,0.00,,,0.00,Wunderground v.1.15,2013-02-13 06:46:00,
2013-02-13 01:50:00,30.4,25.0,29.94,SW,215,0.0,0.0,80,0.00,,,0.00,Wunderground v.1.15,2013-02-13 06:50:00,
2013-02-13 01:51:00,30.4,25.0,29.94,South,187,0.0,0.0,80,0.00,,,0.00,Wunderground v.1.15,2013-02-13 06:51:00,
2013-02-13 01:52:00,30.4,25.0,29.94,SSW,200,0.0,0.0,80,0.00,,,0.00,Wunderground v.1.15,2013-02-13 06:52:00,
2013-02-13 01:55:00,30.4,25.3,29.94,SSW,205,0.0,0.0,81,0.00,,,0.00,Wunderground v.1.15,2013-02-13 06:55:00,
2013-02-13 01:56:00,30.4,25.3,29.94,SE,132,0.0,0.0,81,0.00,,,0.00,Wunderground v.1.15,2013-02-13 06:56:00,
2013-02-13 01:57:00,30.4,25.3,29.94,SSW,211,0.0,0.0,81,0.00,,,0.00,Wunderground v.1.15,2013-02-13 06:57:00,
2013-02-13 01:58:00,30.4,25.3,29.94,SSW,211,0.0,0.0,81,0.00,,,0.00,Wunderground v.1.15,2013-02-13 06:58:00,
2013-02-13 02:01:00,30.4,25.3,29.94,SW,217,0.0,1.0,81,0.00,,,0.00,Wunderground v.1.15,2013-02-13 07:01:00,
2013-02-13 02:03:00,30.3,25.2,29.94,SW,215,0.0,1.0,81,0.00,,,0.00,Wunderground v.1.15,2013-02-13 07:03:00,
2013-02-13 02:06:00,30.3,25.2,29.94,SSE,166,0.0,1.0,81,0.00,,,0.00,Wunderground v.1.15,2013-02-13 07:06:00,
2013-02-13 02:08:00,30.3,25.2,29.94,SW,222,0.0,1.0,81,0.00,,,0.00,Wunderground v.1.15,2013-02-13 07:08:00,
2013-02-13 02:09:00,30.3,25.2,29.94,SW,222,0.0,1.0,81,0.00,,,0.00,Wunderground v.1.15,2013-02-13 07:09:00,
2013-02-13 02:10:00,30.3,25.2,29.94,SSW,203,0.0,0.0,81,0.00,,,0.00,Wunderground v.1.15,2013-02-13 07:10:00,
2013-02-13 02:12:00,30.3,25.2,29.94,SSW,201,0.0,0.0,81,0.00,,,0.00,Wunderground v.1.15,2013-02-13 07:12:00,
2013-02-13 02:14:00,30.3,25.2,29.94,SSW,201,0.0,0.0,81,0.00,,,0.00,Wunderground v.1.15,2013-02-13 07:14:00,
2013-02-13 02:18:00,30.2,25.4,29.94,SSW,205,0.0,1.0,82,0.00,,,0.00,Wunderground v.1.15,2013-02-13 07:18:00,
2013-02-13 02:19:00,30.2,25.4,29.94,SSE,165,0.0,1.0,82,0.00,,,0.00,Wunderground v.1.15,2013-02-13 07:19:00,
2013-02-13 02:24:00,30.2,25.4,29.93,SSE,165,0.0,0.0,82,0.00,,,0.00,Wunderground v.1.15,2013-02-13 07:24:00,
2013-02-13 02:25:00,30.2,25.4,29.93,SSE,165,0.0,0.0,82,0.00,,,0.00,Wunderground v.1.15,2013-02-13 07:25:00,
2013-02-13 02:26:00,30.2,25.4,29.93,SSE,165,0.0,0.0,82,0.00,,,0.00,Wunderground v.1.15,2013-02-13 07:26:00,
2013-02-13 02:29:00,30.2,25.4,29.93,SSE,165,0.0,0.0,82,0.00,,,0.00,Wunderground v.1.15,2013-02-13 07:29:00,
2013-02-13 02:30:00,30.2,25.4,29.93,SSE,165,0.0,0.0,82,0.00,,,0.00,Wunderground v.1.15,2013-02-13 07:30:00,
2013-02-13 02:31:00,30.2,25.4,29.93,SSE,165,0.0,0.0,82,0.00,,,0.00,Wunderground v.1.15,2013-02-13 07:31:00,
2013-02-13 02:32:00,30.1,25.3,29.93,SSE,165,0.0,0.0,82,0.00,,,0.00,Wunderground v.1.15,2013-02-13 07:32:00,
2013-02-13 02:35:00,30.1,25.6,29.93,SSE,165,0.0,0.0,83,0.00,,,0.00,Wunderground v.1.15,2013-02-13 07:35:00,
2013-02-13 02:38:00,30.1,25.6,29.93,SSE,165,0.0,0.0,83,0.00,,,0.00,Wunderground v.1.15,2013-02-13 07:38:00,
2013-02-13 02:40:00,30.0,25.5,29.93,SSE,165,0.0,0.0,83,0.00,,,0.00,Wunderground v.1.15,2013-02-13 07:40:00,
2013-02-13 02:41:00,30.1,25.6,29.93,SSE,165,0.0,0.0,83,0.00,,,0.00,Wunderground v.1.15,2013-02-13 07:41:00,
2013-02-13 02:43:00,30.0,25.5,29.93,SSE,165,0.0,0.0,83,0.00,,,0.00,Wunderground v.1.15,2013-02-13 07:43:00,
2013-02-13 02:46:00,29.9,25.4,29.93,SSE,165,0.0,0.0,83,0.00,,,0.00,Wunderground v.1.15,2013-02-13 07:46:00,
2013-02-13 02:47:00,29.9,25.4,29.93,SSE,165,0.0,0.0,83,0.00,,,0.00,Wunderground v.1.15,2013-02-13 07:47:00,
2013-02-13 02:48:00,29.9,25.4,29.92,SSE,165,0.0,0.0,83,0.00,,,0.00,Wunderground v.1.15,2013-02-13 07:48:00,
2013-02-13 02:49:00,29.9,25.4,29.92,SSE,165,0.0,0.0,83,0.00,,,0.00,Wunderground v.1.15,2013-02-13 07:49:00,
2013-02-13 02:53:00,29.9,25.4,29.92,SSE,165,0.0,0.0,83,0.00,,,0.00,Wunderground v.1.15,2013-02-13 07:53:00,
2013-02-13 02:54:00,29.9,25.4,29.92,SSE,165,0.0,0.0,83,0.00,,,0.00,Wunderground v.1.15,2013-02-13 07:54:00,
2013-02-13 02:55:00,29.9,25.4,29.92,SSE,165,0.0,0.0,83,0.00,,,0.00,Wunderground v.1.15,2013-02-13 07:55:00,
2013-02-13 02:58:00,29.9,25.4,29.92,SSE,165,0.0,0.0,83,0.00,,,0.00,Wunderground v.1.15,2013-02-13 07:58:00,
2013-02-13 03:00:00,29.9,25.4,29.92,SSE,165,0.0,0.0,83,0.00,,,0.00,Wunderground v.1.15,2013-02-13 08:00:00,
2013-02-13 03:01:00,29.9,25.4,29.92,SSE,165,0.0,0.0,83,0.00,,,0.00,Wunderground v.1.15,2013-02-13 08:01:00,
2013-02-13 03:02:00,30.0,25.5,29.92,SSE,165,0.0,0.0,83,0.00,,,0.00,Wunderground v.1.15,2013-02-13 08:02:00,
2013-02-13 03:03:00,30.0,25.5,29.92,SW,222,0.0,0.0,83,0.00,,,0.00,Wunderground v.1.15,2013-02-13 08:03:00,
2013-02-13 03:07:00,30.0,25.5,29.92,WSW,238,0.0,0.0,83,0.00,,,0.00,Wunderground v.1.15,2013-02-13 08:07:00,
2013-02-13 03:08:00,30.0,25.2,29.92,West,262,0.0,3.0,82,0.00,,,0.00,Wunderground v.1.15,2013-02-13 08:08:00,
2013-02-13 03:13:00,30.3,25.2,29.92,SW,236,0.0,2.0,81,0.00,,,0.00,Wunderground v.1.15,2013-02-13 08:13:00,
2013-02-13 03:14:00,30.3,25.2,29.92,SW,235,1.0,3.0,81,0.00,,,0.00,Wunderground v.1.15,2013-02-13 08:14:00,
2013-02-13 03:15:00,30.4,25.0,29.92,WSW,252,1.0,4.0,80,0.00,,,0.00,Wunderground v.1.15,2013-02-13 08:15:00,
2013-02-13 03:16:00,30.4,24.7,29.92,WSW,253,1.0,4.0,79,0.00,,,0.00,Wunderground v.1.15,2013-02-13 08:16:00,
2013-02-13 03:19:00,30.6,24.9,29.92,WSW,246,2.0,4.0,79,0.00,,,0.00,Wunderground v.1.15,2013-02-13 08:19:00,
2013-02-13 03:21:00,30.6,24.9,29.92,WSW,243,2.0,2.0,79,0.00,,,0.00,Wunderground v.1.15,2013-02-13 08:21:00,
2013-02-13 03:22:00,30.6,24.9,29.92,WSW,249,2.0,2.0,79,0.00,,,0.00,Wunderground v.1.15,2013-02-13 08:22:00,
2013-02-13 03:25:00,30.6,24.6,29.92,WSW,250,2.0,2.0,78,0.00,,,0.00,Wunderground v.1.15,2013-02-13 08:25:00,
2013-02-13 03:26:00,30.6,24.6,29.92,SW,231,1.0,2.0,78,0.00,,,0.00,Wunderground v.1.15,2013-02-13 08:26:00,
2013-02-13 03:30:00,30.6,24.6,29.92,SW,229,1.0,2.0,78,0.00,,,0.00,Wunderground v.1.15,2013-02-13 08:30:00,
2013-02-13 03:31:00,30.6,24.6,29.92,WSW,249,1.0,2.0,78,0.00,,,0.00,Wunderground v.1.15,2013-02-13 08:31:00,
2013-02-13 03:34:00,30.6,24.6,29.92,SSW,208,1.0,3.0,78,0.00,,,0.00,Wunderground v.1.15,2013-02-13 08:34:00,
2013-02-13 03:37:00,30.6,24.6,29.92,SW,231,1.0,3.0,78,0.00,,,0.00,Wunderground v.1.15,2013-02-13 08:37:00,
2013-02-13 03:38:00,30.6,24.6,29.92,SW,226,1.0,3.0,78,0.00,,,0.00,Wunderground v.1.15,2013-02-13 08:38:00,
2013-02-13 03:42:00,30.6,24.6,29.92,WSW,240,1.0,1.0,78,0.00,,,0.00,Wunderground v.1.15,2013-02-13 08:42:00,
2013-02-13 03:43:00,30.6,24.6,29.92,West,263,0.0,1.0,78,0.00,,,0.00,Wunderground v.1.15,2013-02-13 08:43:00,
2013-02-13 03:45:00,30.6,24.2,29.91,West,259,0.0,1.0,77,0.00,,,0.00,Wunderground v.1.15,2013-02-13 08:45:00,
2013-02-13 03:48:00,30.6,24.2,29.91,WSW,239,1.0,1.0,77,0.00,,,0.00,Wunderground v.1.15,2013-02-13 08:48:00,
2013-02-13 03:49:00,30.6,24.6,29.91,WSW,239,0.0,1.0,78,0.00,,,0.00,Wunderground v.1.15,2013-02-13 08:49:00,
2013-02-13 03:51:00,30.6,24.6,29.91,WSW,239,0.0,0.0,78,0.00,,,0.00,Wunderground v.1.15,2013-02-13 08:51:00,
2013-02-13 03:53:00,30.6,24.6,29.91,WSW,239,0.0,0.0,78,0.00,,,0.00,Wunderground v.1.15,2013-02-13 08:53:00,
2013-02-13 03:54:00,30.5,24.5,29.91,WSW,239,0.0,0.0,78,0.00,,,0.00,Wunderground v.1.15,2013-02-13 08:54:00,
2013-02-13 03:59:00,30.5,24.5,29.91,WSW,239,0.0,0.0,78,0.00,,,0.00,Wunderground v.1.15,2013-02-13 08:59:00,
2013-02-13 04:00:00,30.4,24.4,29.91,WSW,239,0.0,0.0,78,0.00,,,0.00,Wunderground v.1.15,2013-02-13 09:00:00,
2013-02-13 04:01:00,30.4,24.4,29.91,WSW,239,0.0,0.0,78,0.00,,,0.00,Wunderground v.1.15,2013-02-13 09:01:00,
2013-02-13 04:06:00,30.3,24.3,29.91,WSW,239,0.0,0.0,78,0.00,,,0.00,Wunderground v.1.15,2013-02-13 09:06:00,
2013-02-13 04:07:00,30.4,24.4,29.91,WSW,240,0.0,0.0,78,0.00,,,0.00,Wunderground v.1.15,2013-02-13 09:07:00,
2013-02-13 04:09:00,30.3,24.6,29.91,WSW,239,0.0,0.0,79,0.00,,,0.00,Wunderground v.1.15,2013-02-13 09:09:00,
2013-02-13 04:10:00,30.3,24.6,29.91,WSW,239,0.0,0.0,79,0.00,,,0.00,Wunderground v.1.15,2013-02-13 09:10:00,
2013-02-13 04:13:00,30.2,24.5,29.91,WSW,240,0.0,0.0,79,0.00,,,0.00,Wunderground v.1.15,2013-02-13 09:13:00,
2013-02-13 04:16:00,30.2,24.2,29.91,WSW,239,0.0,0.0,78,0.00,,,0.00,Wunderground v.1.15,2013-02-13 09:16:00,
2013-02-13 04:18:00,30.2,24.2,29.91,WSW,239,0.0,0.0,78,0.00,,,0.00,Wunderground v.1.15,2013-02-13 09:18:00,
2013-02-13 04:21:00,30.2,24.2,29.91,WSW,239,0.0,0.0,78,0.00,,,0.00,Wunderground v.1.15,2013-02-13 09:21:00,
2013-02-13 04:24:00,30.1,24.1,29.91,SW,231,0.0,0.0,78,0.00,,,0.00,Wunderground v.1.15,2013-02-13 09:24:00,
2013-02-13 04:26:00,30.1,24.1,29.91,SW,231,0.0,0.0,78,0.00,,,0.00,Wunderground v.1.15,2013-02-13 09:26:00,
2013-02-13 04:28:00,30.1,24.4,29.91,SW,231,0.0,0.0,79,0.00,,,0.00,Wunderground v.1.15,2013-02-13 09:28:00,
2013-02-13 04:31:00,30.1,24.1,29.91,SSW,207,0.0,5.0,78,0.00,,,0.00,Wunderground v.1.15,2013-02-13 09:31:00,
2013-02-13 04:33:00,30.2,24.2,29.91,SSW,207,0.0,5.0,78,0.00,,,0.00,Wunderground v.1.15,2013-02-13 09:33:00,
2013-02-13 04:34:00,30.2,24.2,29.91,SSW,207,0.0,5.0,78,0.00,,,0.00,Wunderground v.1.15,2013-02-13 09:34:00,
2013-02-13 04:37:00,30.2,24.2,29.91,SSW,207,0.0,5.0,78,0.00,,,0.00,Wunderground v.1.15,2013-02-13 09:37:00,
2013-02-13 04:39:00,30.2,24.2,29.91,SSW,207,0.0,5.0,78,0.00,,,0.00,Wunderground v.1.15,2013-02-13 09:39:00,
2013-02-13 04:41:00,30.2,24.2,29.91,SSW,207,0.0,5.0,78,0.00,,,0.00,Wunderground v.1.15,2013-02-13 09:41:00,
2013-02-13 04:44:00,30.2,24.2,29.91,SSW,207,0.0,5.0,78,0.00,,,0.00,Wunderground v.1.15,2013-02-13 09:44:00,
2013-02-13 04:45:00,30.3,24.3,29.91,SSW,207,0.0,5.0,78,0.00,,,0.00,Wunderground v.1.15,2013-02-13 09:45:00,
2013-02-13 04:48:00,30.3,24.3,29.91,SSW,207,0.0,5.0,78,0.00,,,0.00,Wunderground v.1.15,2013-02-13 09:48:00,
2013-02-13 04:49:00,30.3,24.3,29.91,SSW,207,0.0,5.0,78,0.00,,,0.00,Wunderground v.1.15,2013-02-13 09:49:00,
2013-02-13 04:50:00,30.3,24.3,29.90,SSW,207,0.0,5.0,78,0.00,,,0.00,Wunderground v.1.15,2013-02-13 09:50:00,
2013-02-13 04:52:00,30.3,24.3,29.90,SSW,207,0.0,5.0,78,0.00,,,0.00,Wunderground v.1.15,2013-02-13 09:52:00,
2013-02-13 04:55:00,30.3,24.3,29.91,SSW,206,0.0,5.0,78,0.00,,,0.00,Wunderground v.1.15,2013-02-13 09:55:00,
2013-02-13 04:57:00,30.3,24.3,29.90,SW,220,0.0,5.0,78,0.00,,,0.00,Wunderground v.1.15,2013-02-13 09:57:00,
2013-02-13 04:58:00,30.3,24.3,29.90,SW,219,0.0,5.0,78,0.00,,,0.00,Wunderground v.1.15,2013-02-13 09:58:00,
2013-02-13 05:02:00,30.3,24.3,29.90,SW,222,0.0,5.0,78,0.00,,,0.00,Wunderground v.1.15,2013-02-13 10:02:00,
2013-02-13 05:04:00,30.4,24.4,29.90,SW,222,0.0,5.0,78,0.00,,,0.00,Wunderground v.1.15,2013-02-13 10:04:00,
2013-02-13 05:07:00,30.4,24.4,29.90,SW,233,0.0,5.0,78,0.00,,,0.00,Wunderground v.1.15,2013-02-13 10:07:00,
2013-02-13 05:08:00,30.4,24.4,29.90,WSW,244,0.0,5.0,78,0.00,,,0.00,Wunderground v.1.15,2013-02-13 10:08:00,
2013-02-13 05:10:00,30.4,24.4,29.90,SW,236,0.0,5.0,78,0.00,,,0.00,Wunderground v.1.15,2013-02-13 10:10:00,
2013-02-13 05:11:00,30.4,24.4,29.90,SW,235,0.0,5.0,78,0.00,,,0.00,Wunderground v.1.15,2013-02-13 10:11:00,
2013-02-13 05:16:00,30.4,24.4,29.90,SW,217,0.0,5.0,78,0.00,,,0.00,Wunderground v.1.15,2013-02-13 10:16:00,
2013-02-13 05:17:00,30.4,24.4,29.90,SW,217,0.0,5.0,78,0.00,,,0.00,Wunderground v.1.15,2013-02-13 10:17:00,
2013-02-13 05:18:00,30.4,24.4,29.90,SW,217,0.0,5.0,78,0.00,,,0.00,Wunderground v.1.15,2013-02-13 10:18:00,
2013-02-13 05:19:00,30.4,24.4,29.90,SW,217,0.0,5.0,78,0.00,,,0.00,Wunderground v.1.15,2013-02-13 10:19:00,
2013-02-13 05:21:00,30.4,24.4,29.90,SW,217,0.0,5.0,78,0.00,,,0.00,Wunderground v.1.15,2013-02-13 10:21:00,
2013-02-13 05:24:00,30.4,24.4,29.90,WSW,249,0.0,5.0,78,0.00,,,0.00,Wunderground v.1.15,2013-02-13 10:24:00,
2013-02-13 05:27:00,30.5,24.5,29.90,WSW,249,0.0,5.0,78,0.00,,,0.00,Wunderground v.1.15,2013-02-13 10:27:00,
2013-02-13 05:30:00,30.4,24.4,29.90,SW,225,0.0,5.0,78,0.00,,,0.00,Wunderground v.1.15,2013-02-13 10:30:00,
2013-02-13 05:31:00,30.4,24.4,29.90,SW,226,0.0,5.0,78,0.00,,,0.00,Wunderground v.1.15,2013-02-13 10:31:00,
2013-02-13 05:32:00,30.4,24.4,29.90,WSW,256,0.0,5.0,78,0.00,,,0.00,Wunderground v.1.15,2013-02-13 10:32:00,
2013-02-13 05:33:00,30.4,24.4,29.90,SSW,212,0.0,5.0,78,0.00,,,0.00,Wunderground v.1.15,2013-02-13 10:33:00,
2013-02-13 05:35:00,30.4,24.4,29.90,WSW,240,0.0,5.0,78,0.00,,,0.00,Wunderground v.1.15,2013-02-13 10:35:00,
2013-02-13 05:36:00,30.5,24.1,29.90,WSW,240,0.0,5.0,77,0.00,,,0.00,Wunderground v.1.15,2013-02-13 10:36:00,
2013-02-13 05:39:00,30.5,24.5,29.90,WSW,240,0.0,5.0,78,0.00,,,0.00,Wunderground v.1.15,2013-02-13 10:39:00,
2013-02-13 05:40:00,30.5,24.5,29.90,SSW,205,0.0,5.0,78,0.00,,,0.00,Wunderground v.1.15,2013-02-13 10:40:00,
2013-02-13 05:41:00,30.5,24.1,29.90,WSW,244,0.0,5.0,77,0.00,,,0.00,Wunderground v.1.15,2013-02-13 10:41:00,
2013-02-13 05:45:00,30.5,24.1,29.90,SW,222,0.0,5.0,77,0.00,,,0.00,Wunderground v.1.15,2013-02-13 10:45:00,
2013-02-13 05:46:00,30.5,24.1,29.90,SW,217,0.0,5.0,77,0.00,,,0.00,Wunderground v.1.15,2013-02-13 10:46:00,
2013-02-13 05:47:00,30.5,24.1,29.90,WSW,255,0.0,5.0,77,0.00,,,0.00,Wunderground v.1.15,2013-02-13 10:47:00,
2013-02-13 05:49:00,30.6,24.2,29.90,SW,217,1.0,5.0,77,0.00,,,0.00,Wunderground v.1.15,2013-02-13 10:49:00,
2013-02-13 05:52:00,30.6,24.2,29.90,SW,217,0.0,5.0,77,0.00,,,0.00,Wunderground v.1.15,2013-02-13 10:52:00,
2013-02-13 05:53:00,30.6,24.2,29.90,SW,217,0.0,5.0,77,0.00,,,0.00,Wunderground v.1.15,2013-02-13 10:53:00,
2013-02-13 05:55:00,30.5,24.1,29.90,SW,229,0.0,5.0,77,0.00,,,0.00,Wunderground v.1.15,2013-02-13 10:55:00,
2013-02-13 05:58:00,30.5,24.1,29.90,West,266,0.0,5.0,77,0.00,,,0.00,Wunderground v.1.15,2013-02-13 10:58:00,
2013-02-13 05:59:00,30.5,24.1,29.90,SW,236,0.0,5.0,77,0.00,,,0.00,Wunderground v.1.15,2013-02-13 10:59:00,
2013-02-13 06:01:00,30.5,24.1,29.90,SSW,201,0.0,5.0,77,0.00,,,0.00,Wunderground v.1.15,2013-02-13 11:01:00,
2013-02-13 06:04:00,30.5,24.1,29.90,SSW,201,0.0,5.0,77,0.00,,,0.00,Wunderground v.1.15,2013-02-13 11:04:00,
2013-02-13 06:06:00,30.5,24.1,29.90,WSW,248,0.0,5.0,77,0.00,,,0.00,Wunderground v.1.15,2013-02-13 11:06:00,
2013-02-13 06:08:00,30.4,24.1,29.90,SSW,209,0.0,5.0,77,0.00,,,0.00,Wunderground v.1.15,2013-02-13 11:08:00,
2013-02-13 06:11:00,30.4,24.1,29.90,SW,229,0.0,5.0,77,0.00,,,0.00,Wunderground v.1.15,2013-02-13 11:11:00,
2013-02-13 06:12:00,30.4,24.1,29.90,SW,227,0.0,5.0,77,0.00,,,0.00,Wunderground v.1.15,2013-02-13 11:12:00,
2013-02-13 06:14:00,30.4,24.1,29.90,SW,233,0.0,5.0,77,0.00,,,0.00,Wunderground v.1.15,2013-02-13 11:14:00,
2013-02-13 06:17:00,30.4,24.1,29.90,SW,233,0.0,5.0,77,0.00,,,0.00,Wunderground v.1.15,2013-02-13 11:17:00,
2013-02-13 06:18:00,30.4,24.1,29.90,SSW,197,0.0,5.0,77,0.00,,,0.00,Wunderground v.1.15,2013-02-13 11:18:00,
2013-02-13 06:22:00,30.4,24.1,29.90,WSW,239,0.0,5.0,77,0.00,,,0.00,Wunderground v.1.15,2013-02-13 11:22:00,
2013-02-13 06:23:00,30.4,24.1,29.90,SW,217,0.0,5.0,77,0.00,,,0.00,Wunderground v.1.15,2013-02-13 11:23:00,
2013-02-13 06:25:00,30.4,24.1,29.90,South,187,0.0,5.0,77,0.00,,,0.00,Wunderground v.1.15,2013-02-13 11:25:00,
2013-02-13 06:26:00,30.4,24.1,29.90,WSW,246,0.0,5.0,77,0.00,,,0.00,Wunderground v.1.15,2013-02-13 11:26:00,
2013-02-13 06:27:00,30.4,24.1,29.90,WSW,244,0.0,5.0,77,0.00,,,0.00,Wunderground v.1.15,2013-02-13 11:27:00,
2013-02-13 06:31:00,30.4,24.1,29.90,SW,235,0.0,5.0,77,0.00,,,0.00,Wunderground v.1.15,2013-02-13 11:31:00,
2013-02-13 06:32:00,30.4,24.1,29.90,SW,222,0.0,5.0,77,0.00,,,0.00,Wunderground v.1.15,2013-02-13 11:32:00,
2013-02-13 06:34:00,30.4,24.4,29.90,SW,221,0.0,5.0,78,0.00,,,0.00,Wunderground v.1.15,2013-02-13 11:34:00,
2013-02-13 06:37:00,30.4,24.4,29.90,SW,221,0.0,5.0,78,0.00,,,0.00,Wunderground v.1.15,2013-02-13 11:37:00,
2013-02-13 06:38:00,30.4,24.4,29.90,SW,221,0.0,5.0,78,0.00,,,0.00,Wunderground v.1.15,2013-02-13 11:38:00,
2013-02-13 06:41:00,30.4,24.1,29.90,WSW,257,0.0,5.0,77,0.00,,,0.00,Wunderground v.1.15,2013-02-13 11:41:00,
2013-02-13 06:42:00,30.4,24.1,29.90,SW,232,0.0,5.0,77,0.00,,,0.00,Wunderground v.1.15,2013-02-13 11:42:00,
2013-02-13 06:43:00,30.4,24.1,29.90,SW,232,0.0,5.0,77,0.00,,,0.00,Wunderground v.1.15,2013-02-13 11:43:00,
2013-02-13 06:44:00,30.4,24.1,29.90,SW,232,0.0,5.0,77,0.00,,,0.00,Wunderground v.1.15,2013-02-13 11:44:00,
2013-02-13 06:49:00,30.5,24.1,29.90,SW,235,0.0,5.0,77,0.00,,,0.00,Wunderground v.1.15,2013-02-13 11:49:00,
2013-02-13 06:53:00,30.5,24.1,29.90,SW,236,0.0,5.0,77,0.00,,,0.00,Wunderground v.1.15,2013-02-13 11:53:00,
2013-02-13 06:55:00,30.5,24.1,29.90,South,185,0.0,5.0,77,0.00,,,0.00,Wunderground v.1.15,2013-02-13 11:55:00,
2013-02-13 06:57:00,30.5,24.1,29.90,WSW,257,0.0,5.0,77,0.00,,,0.00,Wunderground v.1.15,2013-02-13 11:57:00,
2013-02-13 06:59:00,30.5,23.8,29.90,WSW,238,0.0,5.0,76,0.00,,,0.00,Wunderground v.1.15,2013-02-13 11:59:00,
2013-02-13 07:02:00,30.5,23.8,29.90,WSW,254,0.0,5.0,76,0.00,,,0.00,Wunderground v.1.15,2013-02-13 12:02:00,
2013-02-13 07:03:00,30.5,24.1,29.90,WSW,256,0.0,5.0,77,0.00,,,0.00,Wunderground v.1.15,2013-02-13 12:03:00,
2013-02-13 07:05:00,30.5,24.1,29.90,SW,214,0.0,5.0,77,0.00,,,0.00,Wunderground v.1.15,2013-02-13 12:05:00,
2013-02-13 07:07:00,30.5,24.1,29.90,SSW,211,0.0,5.0,77,0.00,,,0.00,Wunderground v.1.15,2013-02-13 12:07:00,
2013-02-13 07:09:00,30.5,24.1,29.90,WSW,239,0.0,5.0,77,0.00,,,0.00,Wunderground v.1.15,2013-02-13 12:09:00,
2013-02-13 07:10:00,30.5,24.1,29.90,WNW,288,0.0,5.0,77,0.00,,,0.00,Wunderground v.1.15,2013-02-13 12:10:00,
2013-02-13 07:12:00,30.5,24.1,29.90,West,267,0.0,5.0,77,0.00,,,0.00,Wunderground v.1.15,2013-02-13 12:12:00,
2013-02-13 07:15:00,30.5,24.1,29.90,SW,229,0.0,5.0,77,0.00,,,0.00,Wunderground v.1.15,2013-02-13 12:15:00,
2013-02-13 07:17:00,30.5,24.1,29.90,SW,226,0.0,5.0,77,0.00,,,0.00,Wunderground v.1.15,2013-02-13 12:17:00,
2013-02-13 07:18:00,30.5,24.1,29.90,SW,225,0.0,5.0,77,0.00,,,0.00,Wunderground v.1.15,2013-02-13 12:18:00,
2013-02-13 07:20:00,30.5,24.5,29.90,SW,227,0.0,5.0,78,0.00,,,0.00,Wunderground v.1.15,2013-02-13 12:20:00,
2013-02-13 07:21:00,30.5,24.5,29.90,SW,228,0.0,5.0,78,0.00,,,0.00,Wunderground v.1.15,2013-02-13 12:21:00,
2013-02-13 07:23:00,30.5,24.5,29.90,SW,226,0.0,5.0,78,0.00,,,0.00,Wunderground v.1.15,2013-02-13 12:23:00,
2013-02-13 07:25:00,30.5,24.5,29.90,SSW,212,0.0,5.0,78,0.00,,,0.00,Wunderground v.1.15,2013-02-13 12:25:00,
2013-02-13 07:27:00,30.5,24.5,29.89,SW,219,0.0,5.0,78,0.00,,,0.00,Wunderground v.1.15,2013-02-13 12:27:00,
2013-02-13 07:29:00,30.5,24.5,29.89,SW,219,0.0,5.0,78,0.00,,,0.00,Wunderground v.1.15,2013-02-13 12:29:00,
2013-02-13 07:30:00,30.5,24.5,29.89,SW,219,0.0,5.0,78,0.00,,,0.00,Wunderground v.1.15,2013-02-13 12:30:00,
2013-02-13 07:31:00,30.5,24.5,29.89,SW,221,0.0,5.0,78,0.00,,,0.00,Wunderground v.1.15,2013-02-13 12:31:00,
2013-02-13 07:36:00,30.5,24.8,29.89,SW,225,0.0,5.0,79,0.00,,,0.00,Wunderground v.1.15,2013-02-13 12:36:00,
2013-02-13 07:37:00,30.5,24.5,29.89,SW,226,0.0,5.0,78,0.00,,,0.00,Wunderground v.1.15,2013-02-13 12:37:00,
2013-02-13 07:39:00,30.5,24.8,29.89,SW,225,0.0,5.0,79,0.00,,,0.00,Wunderground v.1.15,2013-02-13 12:39:00,
2013-02-13 07:42:00,30.5,24.8,29.89,SW,224,0.0,5.0,79,0.00,,,0.00,Wunderground v.1.15,2013-02-13 12:42:00,
2013-02-13 07:43:00,30.6,24.9,29.89,WSW,238,0.0,5.0,79,0.00,,,0.00,Wunderground v.1.15,2013-02-13 12:43:00,
2013-02-13 07:46:00,30.6,24.9,29.89,WSW,238,0.0,5.0,79,0.00,,,0.00,Wunderground v.1.15,2013-02-13 12:46:00,
2013-02-13 07:49:00,30.7,25.0,29.89,WSW,238,0.0,5.0,79,0.00,,,0.00,Wunderground v.1.15,2013-02-13 12:49:00,
2013-02-13 07:51:00,30.7,25.0,29.89,WSW,238,0.0,5.0,79,0.00,,,0.00,Wunderground v.1.15,2013-02-13 12:51:00,
2013-02-13 07:52:00,30.8,25.1,29.89,WSW,238,0.0,5.0,79,0.00,,,0.00,Wunderground v.1.15,2013-02-13 12:52:00,
2013-02-13 07:54:00,30.7,25.0,29.89,WSW,238,0.0,5.0,79,0.00,,,0.00,Wunderground v.1.15,2013-02-13 12:54:00,
2013-02-13 07:57:00,30.8,25.1,29.89,SW,235,0.0,5.0,79,0.00,,,0.00,Wunderground v.1.15,2013-02-13 12:57:00,
2013-02-13 07:59:00,30.8,25.1,29.89,WSW,243,0.0,5.0,79,0.00,,,0.00,Wunderground v.1.15,2013-02-13 12:59:00,
2013-02-13 08:00:00,30.8,25.1,29.89,WSW,250,0.0,5.0,79,0.00,,,0.00,Wunderground v.1.15,2013-02-13 13:00:00,
2013-02-13 08:02:00,30.9,24.8,29.89,SW,228,0.0,5.0,78,0.00,,,0.00,Wunderground v.1.15,2013-02-13 13:02:00,
2013-02-13 08:04:00,30.9,24.8,29.90,WSW,252,0.0,5.0,78,0.00,,,0.00,Wunderground v.1.15,2013-02-13 13:04:00,
2013-02-13 08:07:00,31.0,24.9,29.89,SW,224,1.0,5.0,78,0.00,,,0.00,Wunderground v.1.15,2013-02-13 13:07:00,
2013-02-13 08:08:00,31.0,24.9,29.89,WSW,238,1.0,5.0,78,0.00,,,0.00,Wunderground v.1.15,2013-02-13 13:08:00,
2013-02-13 08:10:00,31.1,25.0,29.89,WSW,240,1.0,1.0,78,0.00,,,0.00,Wunderground v.1.15,2013-02-13 13:10:00,
2013-02-13 08:12:00,31.1,25.0,29.89,WSW,240,1.0,5.0,78,0.00,,,0.00,Wunderground v.1.15,2013-02-13 13:12:00,
2013-02-13 08:13:00,31.1,25.0,29.89,WSW,257,0.0,5.0,78,0.00,,,0.00,Wunderground v.1.15,2013-02-13 13:13:00,
2013-02-13 08:15:00,31.2,25.1,29.89,SW,219,0.0,5.0,78,0.00,,,0.00,Wunderground v.1.15,2013-02-13 13:15:00,
2013-02-13 08:18:00,31.2,25.1,29.89,WSW,256,0.0,5.0,78,0.00,,,0.00,Wunderground v.1.15,2013-02-13 13:18:00,
2013-02-13 08:22:00,31.3,25.2,29.89,WSW,245,0.0,5.0,78,0.00,,,0.00,Wunderground v.1.15,2013-02-13 13:22:00,
2013-02-13 08:23:00,31.4,25.3,29.89,SW,235,0.0,5.0,78,0.00,,,0.00,Wunderground v.1.15,2013-02-13 13:23:00,
2013-02-13 08:24:00,31.4,25.3,29.89,WSW,245,0.0,5.0,78,0.00,,,0.00,Wunderground v.1.15,2013-02-13 13:24:00,
2013-02-13 08:27:00,31.5,25.4,29.89,West,259,0.0,5.0,78,0.00,,,0.00,Wunderground v.1.15,2013-02-13 13:27:00,
2013-02-13 08:29:00,31.5,25.1,29.89,SSW,207,0.0,5.0,77,0.00,,,0.00,Wunderground v.1.15,2013-02-13 13:29:00,
2013-02-13 08:30:00,31.6,25.2,29.89,SSW,211,0.0,5.0,77,0.00,,,0.00,Wunderground v.1.15,2013-02-13 13:30:00,
2013-02-13 08:32:00,31.6,25.2,29.89,SSW,197,1.0,5.0,77,0.00,,,0.00,Wunderground v.1.15,2013-02-13 13:32:00,
2013-02-13 08:33:00,31.7,25.3,29.89,SW,217,1.0,5.0,77,0.00,,,0.00,Wunderground v.1.15,2013-02-13 13:33:00,
2013-02-13 08:35:00,31.7,25.3,29.89,SW,217,1.0,5.0,77,0.00,,,0.00,Wunderground v.1.15,2013-02-13 13:35:00,
2013-02-13 08:37:00,31.8,25.4,29.89,West,262,1.0,5.0,77,0.00,,,0.00,Wunderground v.1.15,2013-02-13 13:37:00,
2013-02-13 08:40:00,31.9,25.5,29.89,SW,229,1.0,1.0,77,0.00,,,0.00,Wunderground v.1.15,2013-02-13 13:40:00,
2013-02-13 08:42:00,32.0,25.6,29.89,SW,214,0.0,5.0,77,0.00,,,0.00,Wunderground v.1.15,2013-02-13 13:42:00,
2013-02-13 08:46:00,32.1,25.4,29.88,SW,236,0.0,5.0,76,0.00,,,0.00,Wunderground v.1.15,2013-02-13 13:46:00,
2013-02-13 08:47:00,32.2,25.5,29.88,SW,233,0.0,5.0,76,0.00,,,0.00,Wunderground v.1.15,2013-02-13 13:47:00,
2013-02-13 08:49:00,32.2,25.5,29.88,SW,224,0.0,5.0,76,0.00,,,0.00,Wunderground v.1.15,2013-02-13 13:49:00,
2013-02-13 08:51:00,32.3,25.6,29.88,SSE,160,0.0,5.0,76,0.00,,,0.00,Wunderground v.1.15,2013-02-13 13:51:00,
2013-02-13 08:53:00,32.3,25.3,29.88,WSW,242,0.0,5.0,75,0.00,,,0.00,Wunderground v.1.15,2013-02-13 13:53:00,
2013-02-13 08:55:00,32.4,25.4,29.88,SW,219,0.0,5.0,75,0.00,,,0.00,Wunderground v.1.15,2013-02-13 13:55:00,
2013-02-13 08:57:00,32.5,25.1,29.88,SW,225,0.0,5.0,74,0.00,,,0.00,Wunderground v.1.15,2013-02-13 13:57:00,
2013-02-13 08:58:00,32.5,25.1,29.88,SW,235,1.0,5.0,74,0.00,,,0.00,Wunderground v.1.15,2013-02-13 13:58:00,
2013-02-13 08:59:00,32.5,25.1,29.88,WSW,253,1.0,5.0,74,0.00,,,0.00,Wunderground v.1.15,2013-02-13 13:59:00,
2013-02-13 09:02:00,32.6,24.9,29.88,West,260,1.0,5.0,73,0.00,,,0.00,Wunderground v.1.15,2013-02-13 14:02:00,
2013-02-13 09:04:00,32.6,24.9,29.88,West,275,1.0,5.0,73,0.00,,,0.00,Wunderground v.1.15,2013-02-13 14:04:00,
2013-02-13 09:06:00,32.7,25.0,29.88,WSW,238,1.0,5.0,73,0.00,,,0.00,Wunderground v.1.15,2013-02-13 14:06:00,
2013-02-13 09:11:00,32.8,25.1,29.88,WSW,239,2.0,5.0,73,0.00,,,0.00,Wunderground v.1.15,2013-02-13 14:11:00,
2013-02-13 09:13:00,32.8,25.4,29.88,WSW,247,2.0,5.0,74,0.00,,,0.00,Wunderground v.1.15,2013-02-13 14:13:00,
2013-02-13 09:14:00,32.8,25.4,29.88,SW,228,2.0,5.0,74,0.00,,,0.00,Wunderground v.1.15,2013-02-13 14:14:00,
2013-02-13 09:15:00,32.9,25.5,29.88,SW,215,2.0,5.0,74,0.00,,,0.00,Wunderground v.1.15,2013-02-13 14:15:00,
2013-02-13 09:20:00,32.9,25.5,29.88,West,260,2.0,5.0,74,0.00,,,0.00,Wunderground v.1.15,2013-02-13 14:20:00,
2013-02-13 09:21:00,32.8,25.4,29.88,WSW,256,2.0,5.0,74,0.00,,,0.00,Wunderground v.1.15,2013-02-13 14:21:00,
2013-02-13 09:22:00,32.8,25.1,29.88,WSW,250,2.0,5.0,73,0.00,,,0.00,Wunderground v.1.15,2013-02-13 14:22:00,
2013-02-13 09:24:00,32.7,25.3,29.88,WSW,256,2.0,5.0,74,0.00,,,0.00,Wunderground v.1.15,2013-02-13 14:24:00,
2013-02-13 09:26:00,32.7,25.6,29.88,WSW,245,2.0,5.0,75,0.00,,,0.00,Wunderground v.1.15,2013-02-13 14:26:00,
2013-02-13 09:27:00,32.7,25.6,29.88,SW,231,2.0,5.0,75,0.00,,,0.00,Wunderground v.1.15,2013-02-13 14:27:00,
2013-02-13 09:28:00,32.8,25.7,29.88,WSW,247,2.0,5.0,75,0.00,,,0.00,Wunderground v.1.15,2013-02-13 14:28:00,
2013-02-13 09:29:00,32.8,25.7,29.88,WSW,248,2.0,5.0,75,0.00,,,0.00,Wunderground v.1.15,2013-02-13 14:29:00,
2013-02-13 09:32:00,32.8,25.4,29.88,SSE,165,2.0,5.0,74,0.00,,,0.00,Wunderground v.1.15,2013-02-13 14:32:00,
2013-02-13 09:33:00,32.8,25.4,29.88,SW,224,1.0,5.0,74,0.00,,,0.00,Wunderground v.1.15,2013-02-13 14:33:00,
2013-02-13 09:35:00,32.9,25.2,29.88,WSW,256,1.0,5.0,73,0.00,,,0.00,Wunderground v.1.15,2013-02-13 14:35:00,
2013-02-13 09:38:00,32.9,25.2,29.88,SW,217,1.0,5.0,73,0.00,,,0.00,Wunderground v.1.15,2013-02-13 14:38:00,
2013-02-13 09:40:00,33.0,25.3,29.88,WSW,248,1.0,5.0,73,0.00,,,0.00,Wunderground v.1.15,2013-02-13 14:40:00,
2013-02-13 09:41:00,33.0,25.3,29.88,West,264,1.0,5.0,73,0.00,,,0.00,Wunderground v.1.15,2013-02-13 14:41:00,
2013-02-13 09:44:00,33.1,25.7,29.88,SW,219,2.0,5.0,74,0.00,,,0.00,Wunderground v.1.15,2013-02-13 14:44:00,
2013-02-13 09:46:00,33.2,25.8,29.88,SSW,212,1.0,5.0,74,0.00,,,0.00,Wunderground v.1.15,2013-02-13 14:46:00,
2013-02-13 09:49:00,33.3,25.9,29.88,SW,235,1.0,5.0,74,0.00,,,0.00,Wunderground v.1.15,2013-02-13 14:49:00,
2013-02-13 09:51:00,33.3,25.6,29.88,WSW,244,1.0,5.0,73,0.00,,,0.00,Wunderground v.1.15,2013-02-13 14:51:00,
2013-02-13 09:52:00,33.2,25.5,29.88,WSW,250,1.0,5.0,73,0.00,,,0.00,Wunderground v.1.15,2013-02-13 14:52:00,
2013-02-13 09:55:00,33.3,25.9,29.88,South,172,1.0,5.0,74,0.00,,,0.00,Wunderground v.1.15,2013-02-13 14:55:00,
2013-02-13 09:57:00,33.5,26.1,29.88,WSW,250,1.0,5.0,74,0.00,,,0.00,Wunderground v.1.15,2013-02-13 14:57:00,
2013-02-13 09:58:00,33.5,26.1,29.88,West,271,1.0,5.0,74,0.00,,,0.00,Wunderground v.1.15,2013-02-13 14:58:00,
2013-02-13 10:00:00,33.6,26.2,29.88,West,281,1.0,5.0,74,0.00,,,0.00,Wunderground v.1.15,2013-02-13 15:00:00,
2013-02-13 10:03:00,33.6,26.2,29.87,SSW,208,1.0,5.0,74,0.00,,,0.00,Wunderground v.1.15,2013-02-13 15:03:00,
2013-02-13 10:04:00,33.7,26.3,29.87,SSW,204,1.0,5.0,74,0.00,,,0.00,Wunderground v.1.15,2013-02-13 15:04:00,
2013-02-13 10:05:00,33.7,26.3,29.87,West,269,1.0,5.0,74,0.00,,,0.00,Wunderground v.1.15,2013-02-13 15:05:00,
2013-02-13 10:07:00,33.9,26.5,29.87,SW,226,1.0,5.0,74,0.00,,,0.00,Wunderground v.1.15,2013-02-13 15:07:00,
2013-02-13 10:10:00,34.0,26.3,29.87,WSW,245,1.0,5.0,73,0.00,,,0.00,Wunderground v.1.15,2013-02-13 15:10:00,
2013-02-13 10:11:00,34.0,25.9,29.87,South,181,1.0,5.0,72,0.00,,,0.00,Wunderground v.1.15,2013-02-13 15:11:00,
2013-02-13 10:16:00,34.0,25.9,29.87,WSW,248,1.0,5.0,72,0.00,,,0.00,Wunderground v.1.15,2013-02-13 15:16:00,
2013-02-13 10:17:00,34.0,25.9,29.87,WSW,255,1.0,5.0,72,0.00,,,0.00,Wunderground v.1.15,2013-02-13 15:17:00,
2013-02-13 10:19:00,34.1,26.0,29.87,West,259,1.0,5.0,72,0.00,,,0.00,Wunderground v.1.15,2013-02-13 15:19:00,
2013-02-13 10:21:00,34.0,25.9,29.87,West,260,1.0,5.0,72,0.00,,,0.00,Wunderground v.1.15,2013-02-13 15:21:00,
2013-02-13 10:22:00,34.0,25.9,29.87,WSW,256,1.0,5.0,72,0.00,,,0.00,Wunderground v.1.15,2013-02-13 15:22:00,
2013-02-13 10:26:00,33.9,25.5,29.87,SSW,200,2.0,5.0,71,0.00,,,0.00,Wunderground v.1.15,2013-02-13 15:26:00,
2013-02-13 10:27:00,33.9,25.5,29.87,SW,235,2.0,5.0,71,0.00,,,0.00,Wunderground v.1.15,2013-02-13 15:27:00,
2013-02-13 10:28:00,34.0,25.6,29.87,WSW,257,2.0,5.0,71,0.00,,,0.00,Wunderground v.1.15,2013-02-13 15:28:00,
2013-02-13 10:31:00,34.2,25.8,29.87,SSW,202,2.0,5.0,71,0.00,,,0.00,Wunderground v.1.15,2013-02-13 15:31:00,
2013-02-13 10:32:00,34.3,25.9,29.87,West,274,2.0,5.0,71,0.00,,,0.00,Wunderground v.1.15,2013-02-13 15:32:00,
2013-02-13 10:34:00,34.5,26.1,29.87,SE,146,1.0,5.0,71,0.00,,,0.00,Wunderground v.1.15,2013-02-13 15:34:00,
2013-02-13 10:36:00,34.7,25.9,29.87,WSW,248,1.0,5.0,70,0.00,,,0.00,Wunderground v.1.15,2013-02-13 15:36:00,
2013-02-13 10:41:00,35.1,25.6,29.86,SW,233,1.0,5.0,68,0.00,,,0.00,Wunderground v.1.15,2013-02-13 15:41:00,
2013-02-13 10:42:00,35.1,25.6,29.86,South,187,1.0,5.0,68,0.00,,,0.00,Wunderground v.1.15,2013-02-13 15:42:00,
2013-02-13 10:45:00,35.1,25.6,29.86,WSW,240,1.0,5.0,68,0.00,,,0.00,Wunderground v.1.15,2013-02-13 15:45:00,
2013-02-13 10:49:00,35.4,25.9,29.86,West,267,1.0,5.0,68,0.00,,,0.00,Wunderground v.1.15,2013-02-13 15:49:00,
2013-02-13 10:51:00,35.6,26.1,29.86,West,277,1.0,2.0,68,0.00,,,0.00,Wunderground v.1.15,2013-02-13 15:51:00,
2013-02-13 10:52:00,35.7,25.8,29.86,SW,222,1.0,5.0,67,0.00,,,0.00,Wunderground v.1.15,2013-02-13 15:52:00,
2013-02-13 10:53:00,35.7,25.8,29.86,SW,226,1.0,5.0,67,0.00,,,0.00,Wunderground v.1.15,2013-02-13 15:53:00,
2013-02-13 10:56:00,35.7,25.8,29.86,SE,139,1.0,5.0,67,0.00,,,0.00,Wunderground v.1.15,2013-02-13 15:56:00,
2013-02-13 10:57:00,35.7,25.8,29.86,SW,223,1.0,5.0,67,0.00,,,0.00,Wunderground v.1.15,2013-02-13 15:57:00,
2013-02-13 10:58:00,35.9,26.0,29.86,WSW,244,1.0,5.0,67,0.00,,,0.00,Wunderground v.1.15,2013-02-13 15:58:00,
2013-02-13 10:59:00,35.9,26.0,29.86,West,271,1.0,5.0,67,0.00,,,0.00,Wunderground v.1.15,2013-02-13 15:59:00,
2013-02-13 11:03:00,36.3,26.0,29.86,SW,224,1.0,5.0,66,0.00,,,0.00,Wunderground v.1.15,2013-02-13 16:03:00,
2013-02-13 11:04:00,36.4,26.1,29.86,SSW,207,1.0,5.0,66,0.00,,,0.00,Wunderground v.1.15,2013-02-13 16:04:00,
2013-02-13 11:09:00,36.3,25.3,29.86,SSW,201,1.0,5.0,64,0.00,,,0.00,Wunderground v.1.15,2013-02-13 16:09:00,
2013-02-13 11:10:00,36.4,25.4,29.86,SSE,160,1.0,5.0,64,0.00,,,0.00,Wunderground v.1.15,2013-02-13 16:10:00,
2013-02-13 11:11:00,36.4,25.4,29.86,SSE,159,1.0,5.0,64,0.00,,,0.00,Wunderground v.1.15,2013-02-13 16:11:00,
2013-02-13 11:12:00,36.5,25.5,29.86,South,172,1.0,5.0,64,0.00,,,0.00,Wunderground v.1.15,2013-02-13 16:12:00,
2013-02-13 11:16:00,36.9,25.9,29.86,SSE,165,1.0,5.0,64,0.00,,,0.00,Wunderground v.1.15,2013-02-13 16:16:00,
2013-02-13 11:17:00,36.9,25.9,29.86,South,176,1.0,5.0,64,0.00,,,0.00,Wunderground v.1.15,2013-02-13 16:17:00,
2013-02-13 11:18:00,37.0,25.6,29.86,South,179,1.0,5.0,63,0.00,,,0.00,Wunderground v.1.15,2013-02-13 16:18:00,
2013-02-13 11:21:00,36.8,25.4,29.86,SSE,160,2.0,5.0,63,0.00,,,0.00,Wunderground v.1.15,2013-02-13 16:21:00,
2013-02-13 11:23:00,36.7,25.3,29.86,SW,214,2.0,5.0,63,0.00,,,0.00,Wunderground v.1.15,2013-02-13 16:23:00,
2013-02-13 11:28:00,36.7,25.7,29.85,South,170,2.0,5.0,64,0.00,,,0.00,Wunderground v.1.15,2013-02-13 16:28:00,
2013-02-13 11:29:00,36.8,25.8,29.85,WSW,255,1.0,5.0,64,0.00,,,0.00,Wunderground v.1.15,2013-02-13 16:29:00,
2013-02-13 11:33:00,36.3,25.3,29.85,SSE,152,1.0,5.0,64,0.00,,,0.00,Wunderground v.1.15,2013-02-13 16:33:00,
2013-02-13 11:34:00,36.3,25.3,29.85,East,101,1.0,5.0,64,0.00,,,0.00,Wunderground v.1.15,2013-02-13 16:34:00,
2013-02-13 11:36:00,36.2,25.2,29.85,SSE,159,1.0,5.0,64,0.00,,,0.00,Wunderground v.1.15,2013-02-13 16:36:00,
2013-02-13 11:38:00,36.2,25.2,29.85,SE,146,1.0,5.0,64,0.00,,,0.00,Wunderground v.1.15,2013-02-13 16:38:00,
2013-02-13 11:39:00,36.3,25.3,29.85,South,188,1.0,5.0,64,0.00,,,0.00,Wunderground v.1.15,2013-02-13 16:39:00,
2013-02-13 11:43:00,36.6,25.2,29.84,West,273,1.0,5.0,63,0.00,,,0.00,Wunderground v.1.15,2013-02-13 16:43:00,
2013-02-13 11:44:00,36.5,24.7,29.84,West,263,1.0,5.0,62,0.00,,,0.00,Wunderground v.1.15,2013-02-13 16:44:00,
2013-02-13 11:45:00,36.3,24.9,29.84,SSW,195,1.0,5.0,63,0.00,,,0.00,Wunderground v.1.15,2013-02-13 16:45:00,
2013-02-13 11:47:00,36.2,24.8,29.84,West,280,1.0,5.0,63,0.00,,,0.00,Wunderground v.1.15,2013-02-13 16:47:00,
2013-02-13 11:48:00,36.1,24.7,29.84,WSW,251,1.0,5.0,63,0.00,,,0.00,Wunderground v.1.15,2013-02-13 16:48:00,
2013-02-13 11:49:00,36.1,24.7,29.84,WNW,290,1.0,5.0,63,0.00,,,0.00,Wunderground v.1.15,2013-02-13 16:49:00,
2013-02-13 11:51:00,36.0,25.0,29.83,WNW,295,1.0,5.0,64,0.00,,,0.00,Wunderground v.1.15,2013-02-13 16:51:00,
2013-02-13 11:52:00,36.0,25.0,29.83,SW,232,1.0,5.0,64,0.00,,,0.00,Wunderground v.1.15,2013-02-13 16:52:00,
2013-02-13 11:54:00,36.3,25.3,29.83,West,272,1.0,5.0,64,0.00,,,0.00,Wunderground v.1.15,2013-02-13 16:54:00,
2013-02-13 11:57:00,36.5,25.5,29.83,SW,233,1.0,5.0,64,0.00,,,0.00,Wunderground v.1.15,2013-02-13 16:57:00,
2013-02-13 12:00:00,36.3,24.9,29.83,South,173,1.0,5.0,63,0.00,,,0.00,Wunderground v.1.15,2013-02-13 17:00:00,
2013-02-13 12:03:00,36.2,24.8,29.83,WSW,253,1.0,5.0,63,0.00,,,0.00,Wunderground v.1.15,2013-02-13 17:03:00,
2013-02-13 12:05:00,36.2,25.6,29.83,SSW,201,1.0,5.0,65,0.00,,,0.00,Wunderground v.1.15,2013-02-13 17:05:00,
2013-02-13 12:06:00,36.5,25.8,29.83,NE,51,1.0,5.0,65,0.00,,,0.00,Wunderground v.1.15,2013-02-13 17:06:00,
2013-02-13 12:09:00,37.0,25.2,29.83,SSE,167,1.0,5.0,62,0.00,,,0.00,Wunderground v.1.15,2013-02-13 17:09:00,
2013-02-13 12:10:00,37.2,25.4,29.83,WSW,245,1.0,5.0,62,0.00,,,0.00,Wunderground v.1.15,2013-02-13 17:10:00,
2013-02-13 12:11:00,37.2,24.6,29.83,SSE,148,1.0,5.0,60,0.00,,,0.00,Wunderground v.1.15,2013-02-13 17:11:00,
2013-02-13 12:14:00,37.2,24.6,29.83,SSE,158,1.0,5.0,60,0.00,,,0.00,Wunderground v.1.15,2013-02-13 17:14:00,
2013-02-13 12:16:00,37.2,24.6,29.82,SW,216,1.0,5.0,60,0.00,,,0.00,Wunderground v.1.15,2013-02-13 17:16:00,
2013-02-13 12:19:00,37.0,24.0,29.82,WSW,238,1.0,5.0,59,0.00,,,0.00,Wunderground v.1.15,2013-02-13 17:19:00,
2013-02-13 12:20:00,37.0,24.4,29.82,SW,233,1.0,1.0,60,0.00,,,0.00,Wunderground v.1.15,2013-02-13 17:20:00,
2013-02-13 12:24:00,37.2,25.0,29.82,South,173,1.0,5.0,61,0.00,,,0.00,Wunderground v.1.15,2013-02-13 17:24:00,
2013-02-13 12:25:00,37.3,25.5,29.82,South,174,0.0,5.0,62,0.00,,,0.00,Wunderground v.1.15,2013-02-13 17:25:00,
2013-02-13 12:28:00,37.4,24.8,29.82,SW,236,0.0,5.0,60,0.00,,,0.00,Wunderground v.1.15,2013-02-13 17:28:00,
2013-02-13 12:30:00,37.3,25.1,29.82,South,191,1.0,5.0,61,0.00,,,0.00,Wunderground v.1.15,2013-02-13 17:30:00,
2013-02-13 12:33:00,37.1,25.3,29.82,SW,231,1.0,5.0,62,0.00,,,0.00,Wunderground v.1.15,2013-02-13 17:33:00,
2013-02-13 12:35:00,36.9,25.1,29.82,SSW,205,1.0,5.0,62,0.00,,,0.00,Wunderground v.1.15,2013-02-13 17:35:00,
2013-02-13 12:37:00,36.9,25.5,29.82,SE,132,1.0,5.0,63,0.00,,,0.00,Wunderground v.1.15,2013-02-13 17:37:00,
2013-02-13 12:39:00,36.9,25.5,29.82,SSE,153,1.0,5.0,63,0.00,,,0.00,Wunderground v.1.15,2013-02-13 17:39:00,
2013-02-13 12:40:00,36.9,25.1,29.82,South,186,1.0,5.0,62,0.00,,,0.00,Wunderground v.1.15,2013-02-13 17:40:00,
2013-02-13 12:42:00,36.9,25.1,29.82,SSE,162,1.0,5.0,62,0.00,,,0.00,Wunderground v.1.15,2013-02-13 17:42:00,
2013-02-13 12:43:00,36.9,25.1,29.82,ESE,103,1.0,5.0,62,0.00,,,0.00,Wunderground v.1.15,2013-02-13 17:43:00,
2013-02-13 12:45:00,36.9,25.5,29.82,South,184,1.0,5.0,63,0.00,,,0.00,Wunderground v.1.15,2013-02-13 17:45:00,
2013-02-13 12:46:00,37.0,25.2,29.82,SE,128,1.0,5.0,62,0.00,,,0.00,Wunderground v.1.15,2013-02-13 17:46:00,
2013-02-13 12:48:00,36.9,25.1,29.82,SE,135,1.0,5.0,62,0.00,,,0.00,Wunderground v.1.15,2013-02-13 17:48:00,
2013-02-13 12:50:00,36.9,25.1,29.82,SE,132,1.0,1.0,62,0.00,,,0.00,Wunderground v.1.15,2013-02-13 17:50:00,
2013-02-13 12:52:00,36.9,25.1,29.82,SSW,193,1.0,5.0,62,0.00,,,0.00,Wunderground v.1.15,2013-02-13 17:52:00,
2013-02-13 12:53:00,37.0,25.6,29.82,WSW,245,1.0,5.0,63,0.00,,,0.00,Wunderground v.1.15,2013-02-13 17:53:00,
2013-02-13 12:58:00,36.6,24.4,29.82,WSW,250,1.0,5.0,61,0.00,,,0.00,Wunderground v.1.15,2013-02-13 17:58:00,
2013-02-13 12:59:00,36.5,24.3,29.82,WSW,257,1.0,5.0,61,0.00,,,0.00,Wunderground v.1.15,2013-02-13 17:59:00,
2013-02-13 13:00:00,36.4,24.6,29.82,West,264,1.0,5.0,62,0.00,,,0.00,Wunderground v.1.15,2013-02-13 18:00:00,
2013-02-13 13:01:00,36.2,24.0,29.82,WNW,283,1.0,5.0,61,0.00,,,0.00,Wunderground v.1.15,2013-02-13 18:01:00,
2013-02-13 13:06:00,35.9,24.5,29.82,SSW,203,2.0,5.0,63,0.00,,,0.00,Wunderground v.1.15,2013-02-13 18:06:00,
2013-02-13 13:08:00,35.9,24.9,29.82,SSW,204,1.0,5.0,64,0.00,,,0.00,Wunderground v.1.15,2013-02-13 18:08:00,
2013-02-13 13:09:00,36.0,25.0,29.82,SSW,194,1.0,5.0,64,0.00,,,0.00,Wunderground v.1.15,2013-02-13 18:09:00,
2013-02-13 13:10:00,36.1,25.1,29.82,SSE,160,1.0,5.0,64,0.00,,,0.00,Wunderground v.1.15,2013-02-13 18:10:00,
2013-02-13 13:11:00,36.1,24.7,29.82,SSE,162,1.0,5.0,63,0.00,,,0.00,Wunderground v.1.15,2013-02-13 18:11:00,
2013-02-13 13:14:00,36.3,24.9,29.82,South,174,1.0,5.0,63,0.00,,,0.00,Wunderground v.1.15,2013-02-13 18:14:00,
2013-02-13 13:15:00,36.4,25.0,29.82,South,184,1.0,5.0,63,0.00,,,0.00,Wunderground v.1.15,2013-02-13 18:15:00,
2013-02-13 13:16:00,36.5,25.1,29.82,SSW,204,1.0,5.0,63,0.00,,,0.00,Wunderground v.1.15,2013-02-13 18:16:00,
2013-02-13 13:19:00,36.5,25.1,29.82,West,276,1.0,5.0,63,0.00,,,0.00,Wunderground v.1.15,2013-02-13 18:19:00,
2013-02-13 13:20:00,36.4,25.0,29.82,West,274,1.0,1.0,63,0.00,,,0.00,Wunderground v.1.15,2013-02-13 18:20:00,
2013-02-13 13:21:00,36.4,25.4,29.82,West,274,1.0,5.0,64,0.00,,,0.00,Wunderground v.1.15,2013-02-13 18:21:00,
2013-02-13 13:24:00,36.5,25.1,29.82,SSE,159,1.0,5.0,63,0.00,,,0.00,Wunderground v.1.15,2013-02-13 18:24:00,
2013-02-13 13:26:00,36.5,24.7,29.82,SE,126,1.0,5.0,62,0.00,,,0.00,Wunderground v.1.15,2013-02-13 18:26:00,
2013-02-13 13:27:00,36.5,25.1,29.82,South,179,1.0,5.0,63,0.00,,,0.00,Wunderground v.1.15,2013-02-13 18:27:00,
2013-02-13 13:28:00,36.5,25.1,29.81,South,170,1.0,5.0,63,0.00,,,0.00,Wunderground v.1.15,2013-02-13 18:28:00,
2013-02-13 13:31:00,36.5,25.1,29.81,SW,217,1.0,5.0,63,0.00,,,0.00,Wunderground v.1.15,2013-02-13 18:31:00,
2013-02-13 13:32:00,36.6,25.2,29.81,SW,232,1.0,5.0,63,0.00,,,0.00,Wunderground v.1.15,2013-02-13 18:32:00,
2013-02-13 13:33:00,36.6,25.2,29.81,SSE,163,1.0,5.0,63,0.00,,,0.00,Wunderground v.1.15,2013-02-13 18:33:00,
2013-02-13 13:35:00,36.7,25.3,29.81,WSW,246,1.0,5.0,63,0.00,,,0.00,Wunderground v.1.15,2013-02-13 18:35:00,
2013-02-13 13:36:00,36.7,25.3,29.81,West,265,1.0,5.0,63,0.00,,,0.00,Wunderground v.1.15,2013-02-13 18:36:00,
2013-02-13 13:37:00,36.6,25.2,29.81,WNW,290,1.0,5.0,63,0.00,,,0.00,Wunderground v.1.15,2013-02-13 18:37:00,
2013-02-13 13:40:00,36.4,25.0,29.81,WSW,246,1.0,1.0,63,0.00,,,0.00,Wunderground v.1.15,2013-02-13 18:40:00,
2013-02-13 13:41:00,36.3,24.9,29.81,West,264,1.0,5.0,63,0.00,,,0.00,Wunderground v.1.15,2013-02-13 18:41:00,
2013-02-13 13:42:00,36.3,24.9,29.81,West,260,1.0,5.0,63,0.00,,,0.00,Wunderground v.1.15,2013-02-13 18:42:00,
2013-02-13 13:45:00,36.2,25.2,29.81,West,271,1.0,5.0,64,0.00,,,0.00,Wunderground v.1.15,2013-02-13 18:45:00,
2013-02-13 13:47:00,36.1,24.7,29.81,West,259,1.0,5.0,63,0.00,,,0.00,Wunderground v.1.15,2013-02-13 18:47:00,
2013-02-13 13:48:00,36.0,24.6,29.80,SW,233,1.0,5.0,63,0.00,,,0.00,Wunderground v.1.15,2013-02-13 18:48:00,
2013-02-13 13:50:00,36.1,24.7,29.80,SW,233,1.0,1.0,63,0.00,,,0.00,Wunderground v.1.15,2013-02-13 18:50:00,
2013-02-13 13:52:00,36.2,25.2,29.81,SW,233,1.0,5.0,64,0.00,,,0.00,Wunderground v.1.15,2013-02-13 18:52:00,
2013-02-13 13:53:00,36.3,25.7,29.80,SW,233,1.0,5.0,65,0.00,,,0.00,Wunderground v.1.15,2013-02-13 18:53:00,
2013-02-13 13:54:00,36.4,25.7,29.80,SW,233,1.0,5.0,65,0.00,,,0.00,Wunderground v.1.15,2013-02-13 18:54:00,
2013-02-13 13:57:00,36.8,25.4,29.80,South,176,0.0,5.0,63,0.00,,,0.00,Wunderground v.1.15,2013-02-13 18:57:00,
2013-02-13 13:58:00,36.8,25.0,29.80,NW,314,0.0,5.0,62,0.00,,,0.00,Wunderground v.1.15,2013-02-13 18:58:00,
2013-02-13 13:59:00,36.9,25.1,29.80,NW,310,0.0,5.0,62,0.00,,,0.00,Wunderground v.1.15,2013-02-13 18:59:00,
2013-02-13 14:01:00,36.9,25.1,29.80,SW,222,0.0,5.0,62,0.00,,,0.00,Wunderground v.1.15,2013-02-13 19:01:00,
2013-02-13 14:02:00,36.9,25.1,29.80,SSE,162,0.0,5.0,62,0.00,,,0.00,Wunderground v.1.15,2013-02-13 19:02:00,
2013-02-13 14:04:00,37.0,25.2,29.80,SSW,210,0.0,5.0,62,0.00,,,0.00,Wunderground v.1.15,2013-02-13 19:04:00,
2013-02-13 14:07:00,37.3,25.1,29.80,SSE,163,0.0,5.0,61,0.00,,,0.00,Wunderground v.1.15,2013-02-13 19:07:00,
2013-02-13 14:08:00,37.3,25.1,29.80,SSE,156,0.0,5.0,61,0.00,,,0.00,Wunderground v.1.15,2013-02-13 19:08:00,
2013-02-13 14:12:00,37.5,24.9,29.80,SSE,160,1.0,5.0,60,0.00,,,0.00,Wunderground v.1.15,2013-02-13 19:12:00,
2013-02-13 14:14:00,37.5,24.5,29.79,SSE,156,1.0,5.0,59,0.00,,,0.00,Wunderground v.1.15,2013-02-13 19:14:00,
2013-02-13 14:16:00,37.5,24.1,29.79,SSE,167,1.0,5.0,58,0.00,,,0.00,Wunderground v.1.15,2013-02-13 19:16:00,
2013-02-13 14:19:00,37.6,24.1,29.79,West,262,1.0,5.0,58,0.00,,,0.00,Wunderground v.1.15,2013-02-13 19:19:00,
2013-02-13 14:20:00,37.7,24.6,29.79,SW,223,1.0,1.0,59,0.00,,,0.00,Wunderground v.1.15,2013-02-13 19:20:00,
2013-02-13 14:22:00,37.9,24.4,29.79,NW,308,1.0,5.0,58,0.00,,,0.00,Wunderground v.1.15,2013-02-13 19:22:00,
2013-02-13 14:25:00,38.3,24.8,29.79,WSW,246,0.0,5.0,58,0.00,,,0.00,Wunderground v.1.15,2013-02-13 19:25:00,
2013-02-13 14:26:00,38.4,24.9,29.79,West,268,0.0,5.0,58,0.00,,,0.00,Wunderground v.1.15,2013-02-13 19:26:00,
2013-02-13 14:27:00,38.5,25.0,29.79,West,271,0.0,5.0,58,0.00,,,0.00,Wunderground v.1.15,2013-02-13 19:27:00,
2013-02-13 14:28:00,38.4,24.9,29.79,West,269,0.0,5.0,58,0.00,,,0.00,Wunderground v.1.15,2013-02-13 19:28:00,
2013-02-13 14:31:00,37.7,23.8,29.79,WNW,296,1.0,5.0,57,0.00,,,0.00,Wunderground v.1.15,2013-02-13 19:31:00,
2013-02-13 14:33:00,37.5,24.1,29.79,West,276,1.0,5.0,58,0.00,,,0.00,Wunderground v.1.15,2013-02-13 19:33:00,
2013-02-13 14:35:00,37.3,23.9,29.79,WNW,282,2.0,5.0,58,0.00,,,0.00,Wunderground v.1.15,2013-02-13 19:35:00,
2013-02-13 14:36:00,37.2,23.8,29.79,West,267,2.0,5.0,58,0.00,,,0.00,Wunderground v.1.15,2013-02-13 19:36:00,
2013-02-13 14:38:00,37.0,24.0,29.79,NW,304,2.0,5.0,59,0.00,,,0.00,Wunderground v.1.15,2013-02-13 19:38:00,
2013-02-13 14:40:00,37.0,24.4,29.79,NW,308,2.0,2.0,60,0.00,,,0.00,Wunderground v.1.15,2013-02-13 19:40:00,
2013-02-13 14:42:00,37.2,24.6,29.79,West,273,1.0,5.0,60,0.00,,,0.00,Wunderground v.1.15,2013-02-13 19:42:00,
2013-02-13 14:43:00,37.2,24.6,29.79,NW,305,1.0,5.0,60,0.00,,,0.00,Wunderground v.1.15,2013-02-13 19:43:00,
2013-02-13 14:45:00,37.2,24.2,29.79,WNW,295,1.0,5.0,59,0.00,,,0.00,Wunderground v.1.15,2013-02-13 19:45:00,
2013-02-13 14:46:00,37.2,24.2,29.79,WNW,282,1.0,5.0,59,0.00,,,0.00,Wunderground v.1.15,2013-02-13 19:46:00,
2013-02-13 14:48:00,37.3,24.7,29.79,West,281,1.0,5.0,60,0.00,,,0.00,Wunderground v.1.15,2013-02-13 19:48:00,
2013-02-13 14:51:00,37.6,24.6,29.79,WNW,284,1.0,5.0,59,0.00,,,0.00,Wunderground v.1.15,2013-02-13 19:51:00,
2013-02-13 14:54:00,37.7,24.6,29.79,West,278,1.0,5.0,59,0.00,,,0.00,Wunderground v.1.15,2013-02-13 19:54:00,
2013-02-13 14:56:00,37.7,24.2,29.79,WSW,250,1.0,5.0,58,0.00,,,0.00,Wunderground v.1.15,2013-02-13 19:56:00,
2013-02-13 14:59:00,37.8,24.3,29.79,NNW,328,1.0,5.0,58,0.00,,,0.00,Wunderground v.1.15,2013-02-13 19:59:00,
2013-02-13 15:00:00,37.8,24.3,29.79,West,272,1.0,5.0,58,0.00,,,0.00,Wunderground v.1.15,2013-02-13 20:00:00,
2013-02-13 15:02:00,37.7,23.8,29.79,NW,315,0.0,5.0,57,0.00,,,0.00,Wunderground v.1.15,2013-02-13 20:02:00,
2013-02-13 15:06:00,37.7,24.2,29.78,NW,309,1.0,5.0,58,0.00,,,0.00,Wunderground v.1.15,2013-02-13 20:06:00,
2013-02-13 15:07:00,37.8,24.3,29.78,NW,321,1.0,5.0,58,0.00,,,0.00,Wunderground v.1.15,2013-02-13 20:07:00,
2013-02-13 15:08:00,37.8,24.3,29.78,NNW,335,1.0,5.0,58,0.00,,,0.00,Wunderground v.1.15,2013-02-13 20:08:00,
2013-02-13 15:09:00,37.8,24.3,29.78,NW,307,1.0,5.0,58,0.00,,,0.00,Wunderground v.1.15,2013-02-13 20:09:00,
2013-02-13 15:12:00,38.0,24.1,29.78,NW,318,1.0,5.0,57,0.00,,,0.00,Wunderground v.1.15,2013-02-13 20:12:00,
2013-02-13 15:13:00,38.0,24.1,29.78,NW,324,1.0,5.0,57,0.00,,,0.00,Wunderground v.1.15,2013-02-13 20:13:00,
2013-02-13 15:17:00,38.1,24.2,29.78,West,273,1.0,5.0,57,0.00,,,0.00,Wunderground v.1.15,2013-02-13 20:17:00,
2013-02-13 15:19:00,38.2,23.9,29.78,West,281,1.0,5.0,56,0.00,,,0.00,Wunderground v.1.15,2013-02-13 20:19:00,
2013-02-13 15:21:00,38.2,23.9,29.78,West,281,1.0,5.0,56,0.00,,,0.00,Wunderground v.1.15,2013-02-13 20:21:00,
2013-02-13 15:22:00,38.3,24.4,29.78,West,281,1.0,5.0,57,0.00,,,0.00,Wunderground v.1.15,2013-02-13 20:22:00,
2013-02-13 15:24:00,38.3,24.4,29.78,WNW,284,1.0,5.0,57,0.00,,,0.00,Wunderground v.1.15,2013-02-13 20:24:00,
2013-02-13 15:28:00,38.3,24.4,29.78,NNW,346,1.0,5.0,57,0.00,,,0.00,Wunderground v.1.15,2013-02-13 20:28:00,
2013-02-13 15:30:00,38.1,24.2,29.78,NW,323,1.0,5.0,57,0.00,,,0.00,Wunderground v.1.15,2013-02-13 20:30:00,
2013-02-13 15:33:00,37.8,24.3,29.78,SE,136,2.0,5.0,58,0.00,,,0.00,Wunderground v.1.15,2013-02-13 20:33:00,
2013-02-13 15:34:00,37.7,24.6,29.78,NW,323,2.0,5.0,59,0.00,,,0.00,Wunderground v.1.15,2013-02-13 20:34:00,
2013-02-13 15:37:00,37.7,24.6,29.78,NW,313,2.0,5.0,59,0.00,,,0.00,Wunderground v.1.15,2013-02-13 20:37:00,
2013-02-13 15:38:00,37.7,24.6,29.78,NW,316,2.0,5.0,59,0.00,,,0.00,Wunderground v.1.15,2013-02-13 20:38:00,
2013-02-13 15:40:00,37.6,24.6,29.78,North,359,2.0,5.0,59,0.00,,,0.00,Wunderground v.1.15,2013-02-13 20:40:00,
2013-02-13 15:43:00,37.0,25.6,29.78,NNW,347,2.0,5.0,63,0.00,,,0.00,Wunderground v.1.15,2013-02-13 20:43:00,
2013-02-13 15:44:00,36.8,25.8,29.78,NW,324,2.0,5.0,64,0.00,,,0.00,Wunderground v.1.15,2013-02-13 20:44:00,
2013-02-13 15:46:00,36.3,25.7,29.78,NNW,342,3.0,5.0,65,0.00,,,0.00,Wunderground v.1.15,2013-02-13 20:46:00,
2013-02-13 15:47:00,36.1,25.5,29.78,NW,304,3.0,5.0,65,0.00,,,0.00,Wunderground v.1.15,2013-02-13 20:47:00,
2013-02-13 15:48:00,36.0,25.7,29.78,SW,222,3.0,5.0,66,0.00,,,0.00,Wunderground v.1.15,2013-02-13 20:48:00,
2013-02-13 15:49:00,35.8,25.5,29.78,NNW,328,3.0,5.0,66,0.00,,,0.00,Wunderground v.1.15,2013-02-13 20:49:00,
2013-02-13 15:53:00,35.5,25.6,29.79,NW,326,3.0,5.0,67,0.00,,,0.00,Wunderground v.1.15,2013-02-13 20:53:00,
2013-02-13 15:54:00,35.4,25.5,29.79,NW,326,3.0,5.0,67,0.00,,,0.00,Wunderground v.1.15,2013-02-13 20:54:00,
2013-02-13 15:55:00,35.4,25.5,29.79,WNW,291,2.0,5.0,67,0.00,,,0.00,Wunderground v.1.15,2013-02-13 20:55:00,
2013-02-13 15:57:00,35.3,25.4,29.79,NNW,335,2.0,5.0,67,0.00,,,0.00,Wunderground v.1.15,2013-02-13 20:57:00,
2013-02-13 16:00:00,35.3,25.4,29.79,NNW,335,2.0,5.0,67,0.00,,,0.00,Wunderground v.1.15,2013-02-13 21:00:00,
2013-02-13 16:01:00,35.3,25.4,29.79,West,270,2.0,5.0,67,0.00,,,0.00,Wunderground v.1.15,2013-02-13 21:01:00,
2013-02-13 16:04:00,35.3,25.4,29.79,NNW,330,2.0,5.0,67,0.00,,,0.00,Wunderground v.1.15,2013-02-13 21:04:00,
2013-02-13 16:05:00,35.3,25.4,29.79,NNW,343,2.0,5.0,67,0.00,,,0.00,Wunderground v.1.15,2013-02-13 21:05:00,
2013-02-13 16:06:00,35.3,25.4,29.79,NW,314,2.0,5.0,67,0.00,,,0.00,Wunderground v.1.15,2013-02-13 21:06:00,
2013-02-13 16:08:00,35.3,25.8,29.79,North,10,2.0,5.0,68,0.00,,,0.00,Wunderground v.1.15,2013-02-13 21:08:00,
2013-02-13 16:09:00,35.3,25.4,29.78,NNE,13,2.0,5.0,67,0.00,,,0.00,Wunderground v.1.15,2013-02-13 21:09:00,
2013-02-13 16:12:00,35.2,25.7,29.78,NNW,348,2.0,5.0,68,0.00,,,0.00,Wunderground v.1.15,2013-02-13 21:12:00,
2013-02-13 16:13:00,35.2,25.7,29.78,NNW,340,2.0,5.0,68,0.00,,,0.00,Wunderground v.1.15,2013-02-13 21:13:00,
2013-02-13 16:14:00,35.2,25.7,29.78,NW,316,2.0,5.0,68,0.00,,,0.00,Wunderground v.1.15,2013-02-13 21:14:00,
2013-02-13 16:17:00,35.1,25.6,29.78,NNW,344,3.0,5.0,68,0.00,,,0.00,Wunderground v.1.15,2013-02-13 21:17:00,
2013-02-13 16:18:00,35.1,25.6,29.78,NW,321,3.0,5.0,68,0.00,,,0.00,Wunderground v.1.15,2013-02-13 21:18:00,
2013-02-13 16:19:00,35.1,25.6,29.78,NNW,340,3.0,5.0,68,0.00,,,0.00,Wunderground v.1.15,2013-02-13 21:19:00,
2013-02-13 16:20:00,35.1,25.6,29.78,NNW,347,3.0,3.0,68,0.00,,,0.00,Wunderground v.1.15,2013-02-13 21:20:00,
2013-02-13 16:25:00,35.1,25.6,29.78,NW,319,3.0,5.0,68,0.00,,,0.00,Wunderground v.1.15,2013-02-13 21:25:00,
2013-02-13 16:26:00,35.1,25.9,29.78,NNW,327,2.0,5.0,69,0.00,,,0.00,Wunderground v.1.15,2013-02-13 21:26:00,
2013-02-13 16:28:00,35.2,26.0,29.78,NNW,333,2.0,5.0,69,0.00,,,0.00,Wunderground v.1.15,2013-02-13 21:28:00,
2013-02-13 16:29:00,35.2,25.7,29.78,NNW,339,2.0,5.0,68,0.00,,,0.00,Wunderground v.1.15,2013-02-13 21:29:00,
2013-02-13 16:30:00,35.2,25.7,29.78,WNW,296,2.0,2.0,68,0.00,,,0.00,Wunderground v.1.15,2013-02-13 21:30:00,
2013-02-13 16:33:00,35.1,25.6,29.78,North,10,2.0,5.0,68,0.00,,,0.00,Wunderground v.1.15,2013-02-13 21:33:00,
2013-02-13 16:35:00,34.9,25.4,29.78,NW,319,2.0,5.0,68,0.00,,,0.00,Wunderground v.1.15,2013-02-13 21:35:00,
2013-02-13 16:38:00,34.7,25.6,29.78,NE,36,2.0,5.0,69,0.00,,,0.00,Wunderground v.1.15,2013-02-13 21:38:00,
2013-02-13 16:39:00,34.7,25.6,29.78,NW,318,2.0,5.0,69,0.00,,,0.00,Wunderground v.1.15,2013-02-13 21:39:00,
2013-02-13 16:40:00,34.6,25.5,29.78,NNW,332,2.0,5.0,69,0.00,,,0.00,Wunderground v.1.15,2013-02-13 21:40:00,
2013-02-13 16:42:00,34.5,25.7,29.78,NNW,347,2.0,5.0,70,0.00,,,0.00,Wunderground v.1.15,2013-02-13 21:42:00,
2013-02-13 16:43:00,34.4,25.6,29.78,NNW,340,2.0,7.0,70,0.00,,,0.00,Wunderground v.1.15,2013-02-13 21:43:00,
2013-02-13 16:46:00,34.2,25.4,29.78,NE,44,3.0,7.0,70,0.00,,,0.00,Wunderground v.1.15,2013-02-13 21:46:00,
2013-02-13 16:47:00,34.1,25.3,29.78,NNE,22,3.0,7.0,70,0.00,,,0.00,Wunderground v.1.15,2013-02-13 21:47:00,
2013-02-13 16:48:00,34.0,25.6,29.78,NW,318,3.0,7.0,71,0.00,,,0.00,Wunderground v.1.15,2013-02-13 21:48:00,
2013-02-13 16:51:00,33.8,25.7,29.78,NNW,332,3.0,5.0,72,0.00,,,0.00,Wunderground v.1.15,2013-02-13 21:51:00,
2013-02-13 16:52:00,33.8,25.7,29.78,NNW,348,3.0,5.0,72,0.00,,,0.00,Wunderground v.1.15,2013-02-13 21:52:00,
2013-02-13 16:54:00,33.7,25.6,29.78,NNW,337,3.0,5.0,72,0.00,,,0.00,Wunderground v.1.15,2013-02-13 21:54:00,
2013-02-13 16:57:00,33.6,25.9,29.78,NNW,330,3.0,5.0,73,0.00,,,0.00,Wunderground v.1.15,2013-02-13 21:57:00,
2013-02-13 17:00:00,33.4,25.7,29.78,NNW,329,3.0,3.0,73,0.00,,,0.00,Wunderground v.1.15,2013-02-13 22:00:00,
2013-02-13 17:02:00,33.3,25.9,29.78,WNW,293,3.0,5.0,74,0.00,,,0.00,Wunderground v.1.15,2013-02-13 22:02:00,
2013-02-13 17:03:00,33.3,25.9,29.78,NW,321,2.0,5.0,74,0.00,,,0.00,Wunderground v.1.15,2013-02-13 22:03:00,
2013-02-13 17:04:00,33.2,25.8,29.78,NNW,330,2.0,5.0,74,0.00,,,0.00,Wunderground v.1.15,2013-02-13 22:04:00,
2013-02-13 17:05:00,33.2,25.8,29.78,NNW,335,2.0,5.0,74,0.00,,,0.00,Wunderground v.1.15,2013-02-13 22:05:00,
2013-02-13 17:07:00,33.1,25.7,29.78,NNW,335,2.0,5.0,74,0.00,,,0.00,Wunderground v.1.15,2013-02-13 22:07:00,
2013-02-13 17:10:00,33.0,25.6,29.78,NNW,343,1.0,1.0,74,0.00,,,0.00,Wunderground v.1.15,2013-02-13 22:10:00,
2013-02-13 17:11:00,32.9,25.5,29.78,NW,325,1.0,2.0,74,0.00,,,0.00,Wunderground v.1.15,2013-02-13 22:11:00,
2013-02-13 17:12:00,32.9,25.5,29.78,NNW,335,1.0,5.0,74,0.00,,,0.00,Wunderground v.1.15,2013-02-13 22:12:00,
2013-02-13 17:14:00,32.8,25.7,29.78,North,356,1.0,5.0,75,0.00,,,0.00,Wunderground v.1.15,2013-02-13 22:14:00,
2013-02-13 17:17:00,32.8,25.7,29.78,NNW,329,1.0,5.0,75,0.00,,,0.00,Wunderground v.1.15,2013-02-13 22:17:00,
2013-02-13 17:19:00,32.7,25.6,29.78,North,8,1.0,5.0,75,0.00,,,0.00,Wunderground v.1.15,2013-02-13 22:19:00,
2013-02-13 17:20:00,32.7,25.6,29.78,NW,316,1.0,5.0,75,0.00,,,0.00,Wunderground v.1.15,2013-02-13 22:20:00,
2013-02-13 17:22:00,32.6,25.6,29.78,NNW,330,1.0,5.0,75,0.00,,,0.00,Wunderground v.1.15,2013-02-13 22:22:00,
2013-02-13 17:23:00,32.5,25.8,29.78,NNW,342,1.0,5.0,76,0.00,,,0.00,Wunderground v.1.15,2013-02-13 22:23:00,
2013-02-13 17:25:00,32.5,25.5,29.78,NNW,329,1.0,5.0,75,0.00,,,0.00,Wunderground v.1.15,2013-02-13 22:25:00,
2013-02-13 17:28:00,32.4,25.7,29.78,NNW,338,1.0,5.0,76,0.00,,,0.00,Wunderground v.1.15,2013-02-13 22:28:00,
2013-02-13 17:31:00,32.3,25.6,29.78,WNW,295,1.0,5.0,76,0.00,,,0.00,Wunderground v.1.15,2013-02-13 22:31:00,
2013-02-13 17:32:00,32.2,25.5,29.78,WNW,295,1.0,5.0,76,0.00,,,0.00,Wunderground v.1.15,2013-02-13 22:32:00,
2013-02-13 17:33:00,32.2,25.5,29.78,NW,321,1.0,5.0,76,0.00,,,0.00,Wunderground v.1.15,2013-02-13 22:33:00,
2013-02-13 17:36:00,32.0,25.6,29.78,NW,309,0.0,5.0,77,0.00,,,0.00,Wunderground v.1.15,2013-02-13 22:36:00,
2013-02-13 17:38:00,31.9,25.5,29.78,NNW,340,0.0,5.0,77,0.00,,,0.00,Wunderground v.1.15,2013-02-13 22:38:00,
2013-02-13 17:39:00,31.8,25.4,29.78,NNW,329,0.0,5.0,77,0.00,,,0.00,Wunderground v.1.15,2013-02-13 22:39:00,
2013-02-13 17:42:00,31.7,25.3,29.78,NNW,337,0.0,5.0,77,0.00,,,0.00,Wunderground v.1.15,2013-02-13 22:42:00,
2013-02-13 17:44:00,31.7,25.3,29.78,North,353,0.0,5.0,77,0.00,,,0.00,Wunderground v.1.15,2013-02-13 22:44:00,
2013-02-13 17:45:00,31.6,25.5,29.78,North,352,0.0,5.0,78,0.00,,,0.00,Wunderground v.1.15,2013-02-13 22:45:00,
2013-02-13 17:49:00,31.4,25.3,29.78,North,352,0.0,5.0,78,0.00,,,0.00,Wunderground v.1.15,2013-02-13 22:49:00,
2013-02-13 17:51:00,31.3,25.2,29.78,North,351,0.0,5.0,78,0.00,,,0.00,Wunderground v.1.15,2013-02-13 22:51:00,
2013-02-13 17:54:00,31.1,25.0,29.78,North,351,0.0,5.0,78,0.00,,,0.00,Wunderground v.1.15,2013-02-13 22:54:00,
2013-02-13 17:55:00,31.1,25.3,29.78,North,351,0.0,5.0,79,0.00,,,0.00,Wunderground v.1.15,2013-02-13 22:55:00,
2013-02-13 17:59:00,30.9,25.2,29.78,North,352,0.0,5.0,79,0.00,,,0.00,Wunderground v.1.15,2013-02-13 22:59:00,
2013-02-13 18:00:00,30.8,25.1,29.78,North,351,0.0,5.0,79,0.00,,,0.00,Wunderground v.1.15,2013-02-13 23:00:00,
2013-02-13 18:01:00,30.7,25.0,29.78,North,351,0.0,5.0,79,0.00,,,0.00,Wunderground v.1.15,2013-02-13 23:01:00,
2013-02-13 18:02:00,30.7,25.0,29.78,North,352,0.0,5.0,79,0.00,,,0.00,Wunderground v.1.15,2013-02-13 23:02:00,
2013-02-13 18:05:00,30.5,25.1,29.78,North,351,0.0,5.0,80,0.00,,,0.00,Wunderground v.1.15,2013-02-13 23:05:00,
2013-02-13 18:10:00,30.2,25.1,29.78,North,352,0.0,5.0,81,0.00,,,0.00,Wunderground v.1.15,2013-02-13 23:10:00,
2013-02-13 18:11:00,30.1,25.0,29.78,North,352,0.0,5.0,81,0.00,,,0.00,Wunderground v.1.15,2013-02-13 23:11:00,
2013-02-13 18:12:00,30.1,25.0,29.78,North,351,0.0,5.0,81,0.00,,,0.00,Wunderground v.1.15,2013-02-13 23:12:00,
2013-02-13 18:15:00,29.9,24.8,29.78,North,351,0.0,5.0,81,0.00,,,0.00,Wunderground v.1.15,2013-02-13 23:15:00,
2013-02-13 18:17:00,29.8,24.7,29.78,North,353,0.0,5.0,81,0.00,,,0.00,Wunderground v.1.15,2013-02-13 23:17:00,
2013-02-13 18:19:00,29.7,24.6,29.79,North,351,0.0,5.0,81,0.00,,,0.00,Wunderground v.1.15,2013-02-13 23:19:00,
2013-02-13 18:21:00,29.5,24.4,29.79,North,351,0.0,5.0,81,0.00,,,0.00,Wunderground v.1.15,2013-02-13 23:21:00,
2013-02-13 18:22:00,29.4,24.3,29.79,North,351,0.0,5.0,81,0.00,,,0.00,Wunderground v.1.15,2013-02-13 23:22:00,
2013-02-13 18:23:00,29.3,24.2,29.79,North,351,0.0,5.0,81,0.00,,,0.00,Wunderground v.1.15,2013-02-13 23:23:00,
2013-02-13 18:24:00,29.2,24.1,29.78,North,351,0.0,5.0,81,0.00,,,0.00,Wunderground v.1.15,2013-02-13 23:24:00,
2013-02-13 18:27:00,28.8,23.7,29.79,North,353,0.0,5.0,81,0.00,,,0.00,Wunderground v.1.15,2013-02-13 23:27:00,
2013-02-13 18:30:00,28.5,23.7,29.79,North,351,0.0,5.0,82,0.00,,,0.00,Wunderground v.1.15,2013-02-13 23:30:00,
2013-02-13 18:32:00,28.2,23.4,29.79,North,352,0.0,5.0,82,0.00,,,0.00,Wunderground v.1.15,2013-02-13 23:32:00,
2013-02-13 18:33:00,28.0,23.2,29.79,North,351,0.0,5.0,82,0.00,,,0.00,Wunderground v.1.15,2013-02-13 23:33:00,
2013-02-13 18:35:00,27.7,22.9,29.79,North,351,0.0,5.0,82,0.00,,,0.00,Wunderground v.1.15,2013-02-13 23:35:00,
2013-02-13 18:37:00,27.5,23.0,29.79,North,351,0.0,5.0,83,0.00,,,0.00,Wunderground v.1.15,2013-02-13 23:37:00,
2013-02-13 18:38:00,27.3,22.8,29.79,North,351,0.0,5.0,83,0.00,,,0.00,Wunderground v.1.15,2013-02-13 23:38:00,
2013-02-13 18:40:00,27.1,22.9,29.79,North,351,0.0,5.0,84,0.00,,,0.00,Wunderground v.1.15,2013-02-13 23:40:00,
2013-02-13 18:43:00,26.8,22.6,29.79,North,351,0.0,5.0,84,0.00,,,0.00,Wunderground v.1.15,2013-02-13 23:43:00,
2013-02-13 18:44:00,26.7,22.5,29.79,North,352,0.0,5.0,84,0.00,,,0.00,Wunderground v.1.15,2013-02-13 23:44:00,
2013-02-13 18:47:00,26.4,22.5,29.79,North,351,0.0,5.0,85,0.00,,,0.00,Wunderground v.1.15,2013-02-13 23:47:00,
2013-02-13 18:49:00,26.2,22.3,29.79,North,351,0.0,5.0,85,0.00,,,0.00,Wunderground v.1.15,2013-02-13 23:49:00,
2013-02-13 18:50:00,26.1,22.2,29.79,North,351,0.0,5.0,85,0.00,,,0.00,Wunderground v.1.15,2013-02-13 23:50:00,
2013-02-13 18:52:00,26.1,22.8,29.79,North,352,0.0,5.0,87,0.00,,,0.00,Wunderground v.1.15,2013-02-13 23:52:00,
2013-02-13 18:54:00,26.3,23.2,29.79,North,351,0.0,5.0,88,0.00,,,0.00,Wunderground v.1.15,2013-02-13 23:54:00,
2013-02-13 18:55:00,26.4,23.3,29.79,North,352,0.0,5.0,88,0.00,,,0.00,Wunderground v.1.15,2013-02-13 23:55:00,
2013-02-13 18:56:00,26.5,23.4,29.79,North,351,0.0,5.0,88,0.00,,,0.00,Wunderground v.1.15,2013-02-13 23:56:00,
2013-02-13 18:58:00,26.7,23.9,29.79,North,352,0.0,5.0,89,0.00,,,0.00,Wunderground v.1.15,2013-02-13 23:58:00,
2013-02-13 19:00:00,26.9,23.8,29.79,North,352,0.0,5.0,88,0.00,,,0.00,Wunderground v.1.15,2013-02-14 00:00:00,
2013-02-13 19:02:00,26.9,23.8,29.79,North,351,0.0,5.0,88,0.00,,,0.00,Wunderground v.1.15,2013-02-14 00:02:00,
2013-02-13 19:04:00,26.9,23.8,29.79,North,352,0.0,5.0,88,0.00,,,0.00,Wunderground v.1.15,2013-02-14 00:04:00,
2013-02-13 19:07:00,26.8,23.7,29.79,North,352,0.0,5.0,88,0.00,,,0.00,Wunderground v.1.15,2013-02-14 00:07:00,
2013-02-13 19:08:00,26.8,23.7,29.79,North,352,0.0,5.0,88,0.00,,,0.00,Wunderground v.1.15,2013-02-14 00:08:00,
2013-02-13 19:09:00,26.8,23.7,29.79,North,351,0.0,5.0,88,0.00,,,0.00,Wunderground v.1.15,2013-02-14 00:09:00,
2013-02-13 19:11:00,26.8,23.7,29.79,North,352,0.0,5.0,88,0.00,,,0.00,Wunderground v.1.15,2013-02-14 00:11:00,
2013-02-13 19:13:00,26.8,23.7,29.80,North,351,0.0,5.0,88,0.00,,,0.00,Wunderground v.1.15,2013-02-14 00:13:00,
2013-02-13 19:14:00,26.7,23.4,29.80,North,352,0.0,5.0,87,0.00,,,0.00,Wunderground v.1.15,2013-02-14 00:14:00,
2013-02-13 19:16:00,26.6,23.5,29.79,North,352,0.0,5.0,88,0.00,,,0.00,Wunderground v.1.15,2013-02-14 00:16:00,
2013-02-13 19:17:00,26.6,23.5,29.80,North,351,0.0,5.0,88,0.00,,,0.00,Wunderground v.1.15,2013-02-14 00:17:00,
2013-02-13 19:18:00,26.6,23.5,29.79,North,352,0.0,5.0,88,0.00,,,0.00,Wunderground v.1.15,2013-02-14 00:18:00,
2013-02-13 19:22:00,26.4,23.3,29.80,North,351,0.0,5.0,88,0.00,,,0.00,Wunderground v.1.15,2013-02-14 00:22:00,
2013-02-13 19:23:00,26.4,23.3,29.80,North,351,0.0,5.0,88,0.00,,,0.00,Wunderground v.1.15,2013-02-14 00:23:00,
2013-02-13 19:25:00,26.5,23.7,29.80,North,351,0.0,5.0,89,0.00,,,0.00,Wunderground v.1.15,2013-02-14 00:25:00,
2013-02-13 19:28:00,26.8,24.0,29.80,North,351,0.0,5.0,89,0.00,,,0.00,Wunderground v.1.15,2013-02-14 00:28:00,
2013-02-13 19:29:00,26.9,24.1,29.80,North,351,0.0,5.0,89,0.00,,,0.00,Wunderground v.1.15,2013-02-14 00:29:00,
2013-02-13 19:31:00,27.0,24.2,29.80,North,351,0.0,5.0,89,0.00,,,0.00,Wunderground v.1.15,2013-02-14 00:31:00,
2013-02-13 19:32:00,27.1,24.0,29.80,North,352,0.0,5.0,88,0.00,,,0.00,Wunderground v.1.15,2013-02-14 00:32:00,
2013-02-13 19:33:00,27.1,24.0,29.80,North,352,0.0,5.0,88,0.00,,,0.00,Wunderground v.1.15,2013-02-14 00:33:00,
2013-02-13 19:38:00,27.3,24.2,29.80,North,352,0.0,5.0,88,0.00,,,0.00,Wunderground v.1.15,2013-02-14 00:38:00,
2013-02-13 19:39:00,27.3,23.9,29.80,North,351,0.0,5.0,87,0.00,,,0.00,Wunderground v.1.15,2013-02-14 00:39:00,
2013-02-13 19:42:00,27.3,23.9,29.80,North,352,0.0,5.0,87,0.00,,,0.00,Wunderground v.1.15,2013-02-14 00:42:00,
2013-02-13 19:43:00,27.3,23.9,29.80,North,352,0.0,5.0,87,0.00,,,0.00,Wunderground v.1.15,2013-02-14 00:43:00,
2013-02-13 19:44:00,27.3,23.9,29.80,North,352,0.0,5.0,87,0.00,,,0.00,Wunderground v.1.15,2013-02-14 00:44:00,
2013-02-13 19:48:00,27.3,23.9,29.81,North,352,0.0,5.0,87,0.00,,,0.00,Wunderground v.1.15,2013-02-14 00:48:00,
2013-02-13 19:49:00,27.2,23.6,29.81,North,351,0.0,5.0,86,0.00,,,0.00,Wunderground v.1.15,2013-02-14 00:49:00,
2013-02-13 19:50:00,27.2,23.6,29.81,North,352,0.0,5.0,86,0.00,,,0.00,Wunderground v.1.15,2013-02-14 00:50:00,
2013-02-13 19:53:00,27.0,23.4,29.81,North,352,0.0,5.0,86,0.00,,,0.00,Wunderground v.1.15,2013-02-14 00:53:00,
2013-02-13 19:54:00,26.9,23.3,29.81,North,351,0.0,5.0,86,0.00,,,0.00,Wunderground v.1.15,2013-02-14 00:54:00,
2013-02-13 19:55:00,26.7,23.1,29.81,North,352,0.0,5.0,86,0.00,,,0.00,Wunderground v.1.15,2013-02-14 00:55:00,
2013-02-13 19:58:00,26.4,22.5,29.81,North,352,0.0,5.0,85,0.00,,,0.00,Wunderground v.1.15,2013-02-14 00:58:00,
2013-02-13 19:59:00,26.2,22.3,29.81,North,351,0.0,5.0,85,0.00,,,0.00,Wunderground v.1.15,2013-02-14 00:59:00,
2013-02-13 20:01:00,26.0,22.4,29.81,North,351,0.0,5.0,86,0.00,,,0.00,Wunderground v.1.15,2013-02-14 01:01:00,
2013-02-13 20:03:00,25.9,22.6,29.81,North,351,0.0,5.0,87,0.00,,,0.00,Wunderground v.1.15,2013-02-14 01:03:00,
2013-02-13 20:04:00,25.9,22.6,29.81,North,351,0.0,5.0,87,0.00,,,0.00,Wunderground v.1.15,2013-02-14 01:04:00,
2013-02-13 20:07:00,25.8,22.7,29.81,North,351,0.0,5.0,88,0.00,,,0.00,Wunderground v.1.15,2013-02-14 01:07:00,
2013-02-13 20:09:00,25.6,22.5,29.81,North,352,0.0,5.0,88,0.00,,,0.00,Wunderground v.1.15,2013-02-14 01:09:00,
2013-02-13 20:10:00,25.5,22.4,29.81,North,351,0.0,5.0,88,0.00,,,0.00,Wunderground v.1.15,2013-02-14 01:10:00,
2013-02-13 20:13:00,25.4,22.3,29.81,North,352,0.0,5.0,88,0.00,,,0.00,Wunderground v.1.15,2013-02-14 01:13:00,
2013-02-13 20:15:00,25.3,22.2,29.81,North,352,0.0,5.0,88,0.00,,,0.00,Wunderground v.1.15,2013-02-14 01:15:00,
2013-02-13 20:16:00,25.2,22.1,29.81,North,351,0.0,5.0,88,0.00,,,0.00,Wunderground v.1.15,2013-02-14 01:16:00,
2013-02-13 20:18:00,25.1,22.3,29.81,North,352,0.0,5.0,89,0.00,,,0.00,Wunderground v.1.15,2013-02-14 01:18:00,
2013-02-13 20:19:00,25.1,22.3,29.81,North,352,0.0,5.0,89,0.00,,,0.00,Wunderground v.1.15,2013-02-14 01:19:00,
2013-02-13 20:24:00,24.8,22.0,29.81,North,352,0.0,5.0,89,0.00,,,0.00,Wunderground v.1.15,2013-02-14 01:24:00,
2013-02-13 20:26:00,24.7,21.9,29.81,North,352,0.0,5.0,89,0.00,,,0.00,Wunderground v.1.15,2013-02-14 01:26:00,
2013-02-13 20:27:00,24.6,21.8,29.81,North,351,0.0,5.0,89,0.00,,,0.00,Wunderground v.1.15,2013-02-14 01:27:00,
2013-02-13 20:29:00,24.5,21.7,29.81,North,352,0.0,5.0,89,0.00,,,0.00,Wunderground v.1.15,2013-02-14 01:29:00,
2013-02-13 20:30:00,24.5,22.0,29.81,North,352,0.0,5.0,90,0.00,,,0.00,Wunderground v.1.15,2013-02-14 01:30:00,
2013-02-13 20:32:00,24.5,22.0,29.81,North,351,0.0,5.0,90,0.00,,,0.00,Wunderground v.1.15,2013-02-14 01:32:00,
2013-02-13 20:35:00,24.4,21.9,29.81,North,351,0.0,5.0,90,0.00,,,0.00,Wunderground v.1.15,2013-02-14 01:35:00,
2013-02-13 20:36:00,24.4,21.9,29.81,North,351,0.0,5.0,90,0.00,,,0.00,Wunderground v.1.15,2013-02-14 01:36:00,
2013-02-13 20:37:00,24.4,21.9,29.81,North,351,0.0,5.0,90,0.00,,,0.00,Wunderground v.1.15,2013-02-14 01:37:00,
2013-02-13 20:38:00,24.4,21.9,29.81,North,351,0.0,5.0,90,0.00,,,0.00,Wunderground v.1.15,2013-02-14 01:38:00,
2013-02-13 20:43:00,24.8,22.8,29.82,North,351,0.0,5.0,92,0.00,,,0.00,Wunderground v.1.15,2013-02-14 01:43:00,
2013-02-13 20:44:00,24.8,22.8,29.82,North,351,0.0,5.0,92,0.00,,,0.00,Wunderground v.1.15,2013-02-14 01:44:00,
2013-02-13 20:46:00,24.9,22.6,29.82,North,351,0.0,5.0,91,0.00,,,0.00,Wunderground v.1.15,2013-02-14 01:46:00,
2013-02-13 20:49:00,24.8,22.3,29.82,North,351,0.0,5.0,90,0.00,,,0.00,Wunderground v.1.15,2013-02-14 01:49:00,
2013-02-13 20:51:00,24.7,22.2,29.82,North,351,0.0,5.0,90,0.00,,,0.00,Wunderground v.1.15,2013-02-14 01:51:00,
2013-02-13 20:53:00,24.5,22.0,29.82,North,351,0.0,5.0,90,0.00,,,0.00,Wunderground v.1.15,2013-02-14 01:53:00,
2013-02-13 20:54:00,24.4,21.9,29.82,North,351,0.0,5.0,90,0.00,,,0.00,Wunderground v.1.15,2013-02-14 01:54:00,
2013-02-13 20:57:00,24.3,21.8,29.82,North,351,0.0,5.0,90,0.00,,,0.00,Wunderground v.1.15,2013-02-14 01:57:00,
2013-02-13 20:58:00,24.4,22.2,29.82,North,351,0.0,5.0,91,0.00,,,0.00,Wunderground v.1.15,2013-02-14 01:58:00,
2013-02-13 21:00:00,24.4,22.2,29.82,North,352,0.0,5.0,91,0.00,,,0.00,Wunderground v.1.15,2013-02-14 02:00:00,
2013-02-13 21:03:00,24.4,22.2,29.82,North,352,0.0,5.0,91,0.00,,,0.00,Wunderground v.1.15,2013-02-14 02:03:00,
2013-02-13 21:05:00,24.3,22.1,29.82,North,351,0.0,5.0,91,0.00,,,0.00,Wunderground v.1.15,2013-02-14 02:05:00,
2013-02-13 21:06:00,24.2,22.0,29.82,North,352,0.0,5.0,91,0.00,,,0.00,Wunderground v.1.15,2013-02-14 02:06:00,
2013-02-13 21:07:00,24.2,21.7,29.82,North,351,0.0,5.0,90,0.00,,,0.00,Wunderground v.1.15,2013-02-14 02:07:00,
2013-02-13 21:08:00,24.0,21.5,29.82,North,352,0.0,5.0,90,0.00,,,0.00,Wunderground v.1.15,2013-02-14 02:08:00,
2013-02-13 21:11:00,24.0,21.8,29.82,North,352,0.0,5.0,91,0.00,,,0.00,Wunderground v.1.15,2013-02-14 02:11:00,
2013-02-13 21:15:00,24.1,22.1,29.82,North,351,0.0,5.0,92,0.00,,,0.00,Wunderground v.1.15,2013-02-14 02:15:00,
2013-02-13 21:16:00,24.1,22.1,29.82,North,352,0.0,5.0,92,0.00,,,0.00,Wunderground v.1.15,2013-02-14 02:16:00,
2013-02-13 21:17:00,24.2,22.2,29.82,North,352,0.0,5.0,92,0.00,,,0.00,Wunderground v.1.15,2013-02-14 02:17:00,
2013-02-13 21:21:00,24.2,22.0,29.82,North,351,0.0,5.0,91,0.00,,,0.00,Wunderground v.1.15,2013-02-14 02:21:00,
2013-02-13 21:23:00,24.1,21.9,29.82,North,351,0.0,5.0,91,0.00,,,0.00,Wunderground v.1.15,2013-02-14 02:23:00,
2013-02-13 21:26:00,23.8,21.6,29.82,North,351,0.0,5.0,91,0.00,,,0.00,Wunderground v.1.15,2013-02-14 02:26:00,
2013-02-13 21:27:00,23.8,21.6,29.82,North,352,0.0,5.0,91,0.00,,,0.00,Wunderground v.1.15,2013-02-14 02:27:00,
2013-02-13 21:28:00,23.7,21.5,29.82,North,352,0.0,5.0,91,0.00,,,0.00,Wunderground v.1.15,2013-02-14 02:28:00,
2013-02-13 21:31:00,23.3,20.8,29.82,North,351,0.0,5.0,90,0.00,,,0.00,Wunderground v.1.15,2013-02-14 02:31:00,
2013-02-13 21:33:00,23.1,20.6,29.82,North,352,0.0,5.0,90,0.00,,,0.00,Wunderground v.1.15,2013-02-14 02:33:00,
2013-02-13 21:34:00,23.1,20.9,29.82,North,352,0.0,5.0,91,0.00,,,0.00,Wunderground v.1.15,2013-02-14 02:34:00,
2013-02-13 21:37:00,23.2,21.2,29.82,North,352,0.0,5.0,92,0.00,,,0.00,Wunderground v.1.15,2013-02-14 02:37:00,
2013-02-13 21:38:00,23.2,21.2,29.82,North,352,0.0,5.0,92,0.00,,,0.00,Wunderground v.1.15,2013-02-14 02:38:00,
2013-02-13 21:39:00,23.2,21.2,29.82,North,351,0.0,5.0,92,0.00,,,0.00,Wunderground v.1.15,2013-02-14 02:39:00,
2013-02-13 21:41:00,23.3,21.3,29.82,North,351,0.0,5.0,92,0.00,,,0.00,Wunderground v.1.15,2013-02-14 02:41:00,
2013-02-13 21:43:00,23.3,21.3,29.82,North,351,0.0,5.0,92,0.00,,,0.00,Wunderground v.1.15,2013-02-14 02:43:00,
2013-02-13 21:45:00,23.2,21.2,29.82,North,351,0.0,5.0,92,0.00,,,0.00,Wunderground v.1.15,2013-02-14 02:45:00,
2013-02-13 21:46:00,23.2,21.2,29.82,North,353,0.0,5.0,92,0.00,,,0.00,Wunderground v.1.15,2013-02-14 02:46:00,
2013-02-13 21:47:00,23.2,21.2,29.82,North,351,0.0,5.0,92,0.00,,,0.00,Wunderground v.1.15,2013-02-14 02:47:00,
2013-02-13 21:50:00,23.1,21.1,29.82,North,351,0.0,5.0,92,0.00,,,0.00,Wunderground v.1.15,2013-02-14 02:50:00,
2013-02-13 21:51:00,23.1,21.1,29.82,North,351,0.0,5.0,92,0.00,,,0.00,Wunderground v.1.15,2013-02-14 02:51:00,
2013-02-13 21:52:00,23.1,21.1,29.82,North,352,0.0,5.0,92,0.00,,,0.00,Wunderground v.1.15,2013-02-14 02:52:00,
2013-02-13 21:53:00,23.1,21.1,29.82,North,351,0.0,5.0,92,0.00,,,0.00,Wunderground v.1.15,2013-02-14 02:53:00,
2013-02-13 21:58:00,23.1,21.1,29.82,North,352,0.0,5.0,92,0.00,,,0.00,Wunderground v.1.15,2013-02-14 02:58:00,
2013-02-13 21:59:00,23.1,21.1,29.83,North,351,0.0,5.0,92,0.00,,,0.00,Wunderground v.1.15,2013-02-14 02:59:00,
2013-02-13 22:01:00,23.1,21.1,29.83,North,351,0.0,5.0,92,0.00,,,0.00,Wunderground v.1.15,2013-02-14 03:01:00,
2013-02-13 22:02:00,23.1,21.1,29.83,North,352,0.0,5.0,92,0.00,,,0.00,Wunderground v.1.15,2013-02-14 03:02:00,
2013-02-13 22:04:00,23.0,21.0,29.83,North,352,0.0,5.0,92,0.00,,,0.00,Wunderground v.1.15,2013-02-14 03:04:00,
2013-02-13 22:09:00,22.9,20.9,29.83,North,352,0.0,5.0,92,0.00,,,0.00,Wunderground v.1.15,2013-02-14 03:09:00,
2013-02-13 22:11:00,22.9,20.9,29.83,North,351,0.0,5.0,92,0.00,,,0.00,Wunderground v.1.15,2013-02-14 03:11:00,
2013-02-13 22:12:00,22.9,20.9,29.83,North,352,0.0,5.0,92,0.00,,,0.00,Wunderground v.1.15,2013-02-14 03:12:00,
2013-02-13 22:14:00,22.9,20.9,29.83,North,352,0.0,5.0,92,0.00,,,0.00,Wunderground v.1.15,2013-02-14 03:14:00,
2013-02-13 22:15:00,22.8,20.8,29.83,North,352,0.0,5.0,92,0.00,,,0.00,Wunderground v.1.15,2013-02-14 03:15:00,
2013-02-13 22:16:00,22.8,21.1,29.83,North,352,0.0,5.0,93,0.00,,,0.00,Wunderground v.1.15,2013-02-14 03:16:00,
2013-02-13 22:17:00,22.9,21.2,29.83,North,352,0.0,5.0,93,0.00,,,0.00,Wunderground v.1.15,2013-02-14 03:17:00,
2013-02-13 22:20:00,22.9,21.2,29.83,North,351,0.0,5.0,93,0.00,,,0.00,Wunderground v.1.15,2013-02-14 03:20:00,
2013-02-13 22:21:00,22.9,21.2,29.83,North,353,0.0,5.0,93,0.00,,,0.00,Wunderground v.1.15,2013-02-14 03:21:00,
2013-02-13 22:23:00,22.9,21.2,29.83,North,351,0.0,5.0,93,0.00,,,0.00,Wunderground v.1.15,2013-02-14 03:23:00,
2013-02-13 22:25:00,22.8,21.1,29.83,North,351,0.0,5.0,93,0.00,,,0.00,Wunderground v.1.15,2013-02-14 03:25:00,
2013-02-13 22:27:00,22.9,21.2,29.83,North,351,0.0,5.0,93,0.00,,,0.00,Wunderground v.1.15,2013-02-14 03:27:00,
2013-02-13 22:28:00,23.0,21.3,29.83,North,351,0.0,5.0,93,0.00,,,0.00,Wunderground v.1.15,2013-02-14 03:28:00,
2013-02-13 22:29:00,23.1,21.4,29.83,North,352,0.0,5.0,93,0.00,,,0.00,Wunderground v.1.15,2013-02-14 03:29:00,
2013-02-13 22:30:00,23.1,21.4,29.83,North,352,0.0,5.0,93,0.00,,,0.00,Wunderground v.1.15,2013-02-14 03:30:00,
2013-02-13 22:33:00,23.2,21.5,29.83,North,352,0.0,5.0,93,0.00,,,0.00,Wunderground v.1.15,2013-02-14 03:33:00,
2013-02-13 22:35:00,23.2,21.5,29.83,North,352,0.0,5.0,93,0.00,,,0.00,Wunderground v.1.15,2013-02-14 03:35:00,
2013-02-13 22:36:00,23.2,21.5,29.83,North,352,0.0,5.0,93,0.00,,,0.00,Wunderground v.1.15,2013-02-14 03:36:00,
2013-02-13 22:41:00,23.0,21.0,29.83,North,352,0.0,5.0,92,0.00,,,0.00,Wunderground v.1.15,2013-02-14 03:41:00,
2013-02-13 22:42:00,22.9,20.9,29.83,North,351,0.0,5.0,92,0.00,,,0.00,Wunderground v.1.15,2013-02-14 03:42:00,
2013-02-13 22:44:00,22.8,20.8,29.83,North,351,0.0,5.0,92,0.00,,,0.00,Wunderground v.1.15,2013-02-14 03:44:00,
2013-02-13 22:46:00,22.6,20.6,29.83,North,352,0.0,5.0,92,0.00,,,0.00,Wunderground v.1.15,2013-02-14 03:46:00,
2013-02-13 22:48:00,22.6,20.6,29.83,North,352,0.0,5.0,92,0.00,,,0.00,Wunderground v.1.15,2013-02-14 03:48:00,
2013-02-13 22:50:00,22.5,20.5,29.83,North,352,0.0,5.0,92,0.00,,,0.00,Wunderground v.1.15,2013-02-14 03:50:00,
2013-02-13 22:51:00,22.5,20.5,29.83,North,352,0.0,5.0,92,0.00,,,0.00,Wunderground v.1.15,2013-02-14 03:51:00,
2013-02-13 22:56:00,22.2,20.2,29.83,North,352,0.0,5.0,92,0.00,,,0.00,Wunderground v.1.15,2013-02-14 03:56:00,
2013-02-13 22:57:00,22.1,20.1,29.83,North,351,0.0,5.0,92,0.00,,,0.00,Wunderground v.1.15,2013-02-14 03:57:00,
2013-02-13 22:59:00,22.1,20.1,29.83,North,351,0.0,5.0,92,0.00,,,0.00,Wunderground v.1.15,2013-02-14 03:59:00,
2013-02-13 23:03:00,22.2,20.5,29.84,North,352,0.0,5.0,93,0.00,,,0.00,Wunderground v.1.15,2013-02-14 04:03:00,
2013-02-13 23:05:00,22.3,20.6,29.83,North,352,0.0,5.0,93,0.00,,,0.00,Wunderground v.1.15,2013-02-14 04:05:00,
2013-02-13 23:06:00,22.4,20.7,29.83,North,351,0.0,5.0,93,0.00,,,0.00,Wunderground v.1.15,2013-02-14 04:06:00,
2013-02-13 23:09:00,22.3,20.6,29.83,North,351,0.0,5.0,93,0.00,,,0.00,Wunderground v.1.15,2013-02-14 04:09:00,
2013-02-13 23:10:00,22.2,20.2,29.83,North,352,0.0,5.0,92,0.00,,,0.00,Wunderground v.1.15,2013-02-14 04:10:00,
2013-02-13 23:11:00,22.1,20.1,29.83,North,351,0.0,5.0,92,0.00,,,0.00,Wunderground v.1.15,2013-02-14 04:11:00,
2013-02-13 23:12:00,22.1,20.1,29.83,North,352,0.0,5.0,92,0.00,,,0.00,Wunderground v.1.15,2013-02-14 04:12:00,
2013-02-13 23:16:00,21.9,19.9,29.83,North,352,0.0,5.0,92,0.00,,,0.00,Wunderground v.1.15,2013-02-14 04:16:00,
2013-02-13 23:17:00,21.9,19.9,29.83,North,351,0.0,5.0,92,0.00,,,0.00,Wunderground v.1.15,2013-02-14 04:17:00,
2013-02-13 23:18:00,21.9,19.9,29.83,North,352,0.0,5.0,92,0.00,,,0.00,Wunderground v.1.15,2013-02-14 04:18:00,
2013-02-13 23:20:00,21.9,19.9,29.83,North,352,0.0,5.0,92,0.00,,,0.00,Wunderground v.1.15,2013-02-14 04:20:00,
2013-02-13 23:21:00,21.8,20.1,29.83,North,351,0.0,5.0,93,0.00,,,0.00,Wunderground v.1.15,2013-02-14 04:21:00,
2013-02-13 23:22:00,21.8,20.1,29.83,North,352,0.0,5.0,93,0.00,,,0.00,Wunderground v.1.15,2013-02-14 04:22:00,
2013-02-13 23:25:00,21.7,19.7,29.83,North,352,0.0,5.0,92,0.00,,,0.00,Wunderground v.1.15,2013-02-14 04:25:00,
2013-02-13 23:26:00,21.6,19.6,29.83,North,351,0.0,5.0,92,0.00,,,0.00,Wunderground v.1.15,2013-02-14 04:26:00,
2013-02-13 23:28:00,21.5,19.5,29.84,North,351,0.0,5.0,92,0.00,,,0.00,Wunderground v.1.15,2013-02-14 04:28:00,
2013-02-13 23:31:00,21.4,19.7,29.83,North,352,0.0,5.0,93,0.00,,,0.00,Wunderground v.1.15,2013-02-14 04:31:00,
2013-02-13 23:32:00,21.4,19.7,29.83,North,351,0.0,5.0,93,0.00,,,0.00,Wunderground v.1.15,2013-02-14 04:32:00,
2013-02-13 23:33:00,21.3,19.6,29.83,North,351,0.0,5.0,93,0.00,,,0.00,Wunderground v.1.15,2013-02-14 04:33:00,
2013-02-13 23:36:00,21.3,19.6,29.84,North,352,0.0,5.0,93,0.00,,,0.00,Wunderground v.1.15,2013-02-14 04:36:00,
2013-02-13 23:38:00,21.4,19.7,29.84,North,351,0.0,5.0,93,0.00,,,0.00,Wunderground v.1.15,2013-02-14 04:38:00,
2013-02-13 23:40:00,21.7,20.2,29.84,North,352,0.0,5.0,94,0.00,,,0.00,Wunderground v.1.15,2013-02-14 04:40:00,
2013-02-13 23:43:00,22.0,20.5,29.84,North,351,0.0,5.0,94,0.00,,,0.00,Wunderground v.1.15,2013-02-14 04:43:00,
2013-02-13 23:45:00,22.1,20.6,29.84,North,351,0.0,5.0,94,0.00,,,0.00,Wunderground v.1.15,2013-02-14 04:45:00,
2013-02-13 23:48:00,22.2,20.5,29.84,North,351,0.0,5.0,93,0.00,,,0.00,Wunderground v.1.15,2013-02-14 04:48:00,
2013-02-13 23:50:00,22.2,20.5,29.84,North,352,0.0,5.0,93,0.00,,,0.00,Wunderground v.1.15,2013-02-14 04:50:00,
2013-02-13 23:52:00,22.3,20.6,29.84,North,351,0.0,5.0,93,0.00,,,0.00,Wunderground v.1.15,2013-02-14 04:52:00,
2013-02-13 23:53:00,22.3,20.6,29.84,North,352,0.0,5.0,93,0.00,,,0.00,Wunderground v.1.15,2013-02-14 04:53:00,
2013-02-13 23:55:00,22.3,20.6,29.84,North,351,0.0,5.0,93,0.00,,,0.00,Wunderground v.1.15,2013-02-14 04:55:00,
2013-02-13 23:57:00,22.3,20.6,29.84,North,351,0.0,5.0,93,0.00,,,0.00,Wunderground v.1.15,2013-02-14 04:57:00,